Wetterdaten: Donnerstag, 07.11.2019
Datum Zeit Temp. Aussen Temp. o. S. Temp +5cm Feuchte Auss Luftdruck Regen Sonnenschein Regendauer Solar Windben Empfang
07.11.2019 00:00 7,6 C 6,7 C 6,7 C 98 % 1002,3 hPa 0,0 l/m 0 min 0 min 0 W/m 6,4 km/h (2 Bft) 95,74 %
07.11.2019 00:02 7,6 C 6,7 C 6,7 C 98 % 1002,2 hPa 0,0 l/m 0 min 0 min 0 W/m 6,4 km/h (2 Bft) 97,67 %
07.11.2019 00:04 7,6 C 6,7 C 6,7 C 98 % 1002,2 hPa 0,0 l/m 0 min 0 min 0 W/m 3,2 km/h (1 Bft) 97,96 %
07.11.2019 00:08 7,6 C 6,7 C 6,7 C 98 % 1002,2 hPa 0,0 l/m 0 min 0 min 0 W/m 12,9 km/h (3 Bft) 97,65 %
07.11.2019 00:10 7,6 C 6,7 C 6,7 C 98 % 1002,2 hPa 0,0 l/m 0 min 0 min 0 W/m 6,4 km/h (2 Bft) 97,87 %
07.11.2019 00:12 7,6 C 6,7 C 6,7 C 99 % 1002,2 hPa 0,0 l/m 0 min 0 min 0 W/m 6,4 km/h (2 Bft) 100,00 %
07.11.2019 00:14 7,6 C 6,7 C 6,7 C 99 % 1002,2 hPa 0,0 l/m 0 min 0 min 0 W/m 3,2 km/h (1 Bft) 97,87 %
07.11.2019 00:16 7,6 C 7,2 C 6,7 C 99 % 1002,2 hPa 0,0 l/m 0 min 0 min 0 W/m 12,9 km/h (3 Bft) 100,00 %
07.11.2019 00:18 7,6 C 7,2 C 6,7 C 99 % 1002,2 hPa 0,0 l/m 0 min 0 min 0 W/m 6,4 km/h (2 Bft) 100,00 %
07.11.2019 00:20 7,6 C 6,7 C 6,7 C 99 % 1002,1 hPa 0,0 l/m 0 min 0 min 0 W/m 6,4 km/h (2 Bft) 100,00 %
07.11.2019 00:22 7,6 C 6,7 C 6,7 C 99 % 1002,1 hPa 0,0 l/m 0 min 0 min 0 W/m 3,2 km/h (1 Bft) 100,00 %
07.11.2019 00:24 7,6 C 7,2 C 6,7 C 99 % 1002,1 hPa 0,0 l/m 0 min 0 min 0 W/m 12,9 km/h (3 Bft) 97,83 %
07.11.2019 00:26 7,6 C 6,7 C 6,7 C 99 % 1002,1 hPa 0,0 l/m 0 min 0 min 0 W/m 12,9 km/h (3 Bft) 100,00 %
07.11.2019 00:28 7,6 C 7,2 C 6,7 C 99 % 1002,0 hPa 0,0 l/m 0 min 0 min 0 W/m 12,9 km/h (3 Bft) 100,00 %
07.11.2019 00:30 7,6 C 7,2 C 6,7 C 99 % 1002,0 hPa 0,0 l/m 0 min 0 min 0 W/m 12,9 km/h (3 Bft) 100,00 %
07.11.2019 00:32 7,6 C 7,2 C 6,7 C 99 % 1002,0 hPa 0,0 l/m 0 min 0 min 0 W/m 12,9 km/h (3 Bft) 100,00 %
07.11.2019 00:34 7,6 C 7,2 C 6,7 C 99 % 1001,9 hPa 0,0 l/m 0 min 0 min 0 W/m 9,7 km/h (2 Bft) 100,00 %
07.11.2019 00:36 7,6 C 7,2 C 6,7 C 99 % 1002,0 hPa 0,0 l/m 0 min 0 min 0 W/m 6,4 km/h (2 Bft) 97,83 %
07.11.2019 00:38 7,6 C 7,2 C 6,7 C 99 % 1002,0 hPa 0,0 l/m 0 min 0 min 0 W/m 12,9 km/h (3 Bft) 97,87 %
07.11.2019 00:40 7,6 C 7,2 C 6,7 C 99 % 1002,0 hPa 0,0 l/m 0 min 0 min 0 W/m 12,9 km/h (3 Bft) 97,87 %
07.11.2019 00:42 7,6 C 7,2 C 6,7 C 99 % 1002,0 hPa 0,0 l/m 0 min 0 min 0 W/m 3,2 km/h (1 Bft) 97,87 %
07.11.2019 00:44 7,6 C 7,2 C 6,7 C 99 % 1002,0 hPa 0,0 l/m 0 min 0 min 0 W/m 12,9 km/h (3 Bft) 97,87 %
07.11.2019 00:46 7,6 C 7,2 C 6,7 C 99 % 1001,9 hPa 0,0 l/m 0 min 0 min 0 W/m 6,4 km/h (2 Bft) 97,83 %
07.11.2019 00:48 7,6 C 7,2 C 6,7 C 99 % 1001,9 hPa 0,0 l/m 0 min 0 min 0 W/m 6,4 km/h (2 Bft) 95,74 %
07.11.2019 00:50 7,6 C 7,2 C 6,7 C 99 % 1001,9 hPa 0,0 l/m 0 min 0 min 0 W/m 19,3 km/h (3 Bft) 95,74 %
07.11.2019 00:52 7,6 C 7,2 C 6,7 C 99 % 1001,9 hPa 0,0 l/m 0 min 0 min 0 W/m 6,4 km/h (2 Bft) 93,62 %
07.11.2019 00:54 7,6 C 7,2 C 6,7 C 99 % 1001,9 hPa 0,0 l/m 0 min 0 min 0 W/m 6,4 km/h (2 Bft) 97,87 %
07.11.2019 00:56 7,6 C 6,7 C 6,7 C 99 % 1001,9 hPa 0,0 l/m 0 min 0 min 0 W/m 16,1 km/h (3 Bft) 97,87 %
07.11.2019 00:58 7,6 C 7,2 C 6,7 C 99 % 1001,9 hPa 0,0 l/m 0 min 0 min 0 W/m 19,3 km/h (3 Bft) 97,83 %
07.11.2019 01:00 7,6 C 7,2 C 6,7 C 99 % 1001,9 hPa 0,0 l/m 0 min 0 min 0 W/m 12,9 km/h (3 Bft) 97,87 %
07.11.2019 01:02 7,6 C 7,2 C 6,7 C 99 % 1001,8 hPa 0,0 l/m 0 min 0 min 0 W/m 16,1 km/h (3 Bft) 97,87 %
07.11.2019 01:04 7,6 C 7,2 C 6,7 C 99 % 1001,8 hPa 0,0 l/m 0 min 0 min 0 W/m 19,3 km/h (3 Bft) 98,11 %
07.11.2019 01:06 7,6 C 7,2 C 6,7 C 99 % 1001,8 hPa 0,0 l/m 0 min 0 min 0 W/m 16,1 km/h (3 Bft) 96,00 %
07.11.2019 01:08 7,6 C 7,2 C 6,7 C 99 % 1001,8 hPa 0,0 l/m 0 min 0 min 0 W/m 19,3 km/h (3 Bft) 94,74 %
07.11.2019 01:10 7,6 C 7,2 C 6,7 C 99 % 1001,7 hPa 0,0 l/m 0 min 0 min 0 W/m 12,9 km/h (3 Bft) 95,65 %
07.11.2019 01:12 7,6 C 7,2 C 6,7 C 99 % 1001,7 hPa 0,0 l/m 0 min 0 min 0 W/m 12,9 km/h (3 Bft) 97,87 %
07.11.2019 01:14 7,6 C 7,2 C 6,7 C 99 % 1001,7 hPa 0,0 l/m 0 min 0 min 0 W/m 12,9 km/h (3 Bft) 97,87 %
07.11.2019 01:16 7,6 C 7,2 C 6,7 C 99 % 1001,6 hPa 0,0 l/m 0 min 0 min 0 W/m 12,9 km/h (3 Bft) 98,11 %
07.11.2019 01:18 7,6 C 7,2 C 6,7 C 99 % 1001,6 hPa 0,0 l/m 0 min 0 min 0 W/m 12,9 km/h (3 Bft) 96,00 %
07.11.2019 01:20 7,6 C 7,2 C 6,7 C 99 % 1001,7 hPa 0,0 l/m 0 min 0 min 0 W/m 6,4 km/h (2 Bft) 100,00 %
07.11.2019 01:22 7,6 C 7,2 C 6,7 C 99 % 1001,6 hPa 0,0 l/m 0 min 0 min 0 W/m 12,9 km/h (3 Bft) 97,83 %
07.11.2019 01:24 7,6 C 7,2 C 6,7 C 99 % 1001,6 hPa 0,0 l/m 0 min 0 min 0 W/m 12,9 km/h (3 Bft) 98,11 %
07.11.2019 01:26 7,6 C 7,2 C 6,7 C 99 % 1001,6 hPa 0,0 l/m 0 min 0 min 0 W/m 12,9 km/h (3 Bft) 98,00 %
07.11.2019 01:28 7,6 C 7,2 C 6,7 C 99 % 1001,6 hPa 0,0 l/m 0 min 0 min 0 W/m 12,9 km/h (3 Bft) 94,74 %
07.11.2019 01:30 7,6 C 7,2 C 6,7 C 99 % 1001,6 hPa 0,0 l/m 0 min 0 min 0 W/m 12,9 km/h (3 Bft) 95,74 %
07.11.2019 01:32 7,6 C 7,2 C 6,7 C 99 % 1001,6 hPa 0,0 l/m 0 min 0 min 0 W/m 6,4 km/h (2 Bft) 96,23 %
07.11.2019 01:34 7,6 C 7,2 C 6,7 C 99 % 1001,5 hPa 0,0 l/m 0 min 0 min 0 W/m 12,9 km/h (3 Bft) 97,96 %
07.11.2019 01:36 7,6 C 7,2 C 6,7 C 99 % 1001,5 hPa 0,0 l/m 0 min 0 min 0 W/m 16,1 km/h (3 Bft) 92,11 %
07.11.2019 01:38 7,6 C 7,2 C 6,7 C 99 % 1001,6 hPa 0,0 l/m 0 min 0 min 0 W/m 16,1 km/h (3 Bft) 95,74 %
07.11.2019 01:40 7,6 C 7,2 C 6,7 C 99 % 1001,6 hPa 0,0 l/m 0 min 0 min 0 W/m 6,4 km/h (2 Bft) 95,74 %
07.11.2019 01:42 7,6 C 6,7 C 6,7 C 99 % 1001,6 hPa 0,0 l/m 0 min 2 min 0 W/m 16,1 km/h (3 Bft) 98,11 %
07.11.2019 01:44 7,6 C 6,7 C 6,7 C 99 % 1001,6 hPa 0,0 l/m 0 min 2 min 0 W/m 6,4 km/h (2 Bft) 97,87 %
07.11.2019 01:46 7,6 C 6,7 C 6,1 C 99 % 1001,6 hPa 0,0 l/m 0 min 2 min 0 W/m 3,2 km/h (1 Bft) 97,96 %
07.11.2019 01:48 7,6 C 6,7 C 6,1 C 99 % 1001,6 hPa 0,0 l/m 0 min 2 min 0 W/m 6,4 km/h (2 Bft) 97,37 %
07.11.2019 01:50 7,6 C 6,7 C 6,1 C 99 % 1001,5 hPa 0,0 l/m 0 min 2 min 0 W/m 6,4 km/h (2 Bft) 97,87 %
07.11.2019 01:52 7,6 C 6,7 C 6,1 C 99 % 1001,5 hPa 0,2 l/m 0 min 0 min 0 W/m 6,4 km/h (2 Bft) 96,23 %
07.11.2019 01:54 7,6 C 6,7 C 6,1 C 99 % 1001,5 hPa 0,0 l/m 0 min 0 min 0 W/m 6,4 km/h (2 Bft) 98,00 %
07.11.2019 01:56 7,6 C 6,7 C 6,1 C 99 % 1001,5 hPa 0,0 l/m 0 min 0 min 0 W/m 6,4 km/h (2 Bft) 97,30 %
07.11.2019 01:58 7,6 C 6,7 C 6,1 C 99 % 1001,5 hPa 0,0 l/m 0 min 0 min 0 W/m 6,4 km/h (2 Bft) 95,74 %
07.11.2019 02:00 7,6 C 6,7 C 6,1 C 99 % 1001,5 hPa 0,0 l/m 0 min 0 min 0 W/m 12,9 km/h (3 Bft) 98,11 %
07.11.2019 02:02 7,6 C 6,7 C 6,1 C 99 % 1001,5 hPa 0,0 l/m 0 min 0 min 0 W/m 6,4 km/h (2 Bft) 94,00 %
07.11.2019 02:04 7,6 C 6,7 C 6,1 C 99 % 1001,5 hPa 0,0 l/m 0 min 0 min 0 W/m 16,1 km/h (3 Bft) 100,00 %
07.11.2019 02:06 7,6 C 6,7 C 6,1 C 99 % 1001,5 hPa 0,0 l/m 0 min 0 min 0 W/m 12,9 km/h (3 Bft) 93,62 %
07.11.2019 02:08 7,6 C 6,7 C 6,1 C 99 % 1001,4 hPa 0,0 l/m 0 min 0 min 0 W/m 6,4 km/h (2 Bft) 97,83 %
07.11.2019 02:10 7,6 C 6,7 C 6,1 C 99 % 1001,4 hPa 0,0 l/m 0 min 0 min 0 W/m 12,9 km/h (3 Bft) 98,11 %
07.11.2019 02:12 7,6 C 6,7 C 6,1 C 99 % 1001,4 hPa 0,0 l/m 0 min 0 min 0 W/m 6,4 km/h (2 Bft) 100,00 %
07.11.2019 02:14 7,5 C 6,7 C 6,1 C 99 % 1001,4 hPa 0,0 l/m 0 min 0 min 0 W/m 3,2 km/h (1 Bft) 100,00 %
07.11.2019 02:16 7,5 C 6,7 C 6,1 C 99 % 1001,4 hPa 0,0 l/m 0 min 0 min 0 W/m 0,0 km/h (0 Bft) 100,00 %
07.11.2019 02:18 7,5 C 6,7 C 6,1 C 99 % 1001,4 hPa 0,0 l/m 0 min 0 min 0 W/m 12,9 km/h (3 Bft) 100,00 %
07.11.2019 02:20 7,5 C 6,7 C 6,1 C 99 % 1001,3 hPa 0,0 l/m 0 min 0 min 0 W/m 12,9 km/h (3 Bft) 100,00 %
07.11.2019 02:22 7,5 C 6,7 C 6,1 C 99 % 1001,3 hPa 0,0 l/m 0 min 0 min 0 W/m 12,9 km/h (3 Bft) 100,00 %
07.11.2019 02:24 7,5 C 6,7 C 6,1 C 99 % 1001,3 hPa 0,0 l/m 0 min 0 min 0 W/m 16,1 km/h (3 Bft) 100,00 %
07.11.2019 02:26 7,4 C 6,1 C 6,1 C 99 % 1001,3 hPa 0,0 l/m 0 min 0 min 0 W/m 12,9 km/h (3 Bft) 100,00 %
07.11.2019 02:28 7,4 C 6,1 C 6,1 C 99 % 1001,3 hPa 0,0 l/m 0 min 0 min 0 W/m 16,1 km/h (3 Bft) 100,00 %
07.11.2019 02:30 7,4 C 6,1 C 6,1 C 99 % 1001,3 hPa 0,0 l/m 0 min 0 min 0 W/m 12,9 km/h (3 Bft) 100,00 %
07.11.2019 02:32 7,4 C 6,1 C 6,1 C 99 % 1001,3 hPa 0,0 l/m 0 min 0 min 0 W/m 12,9 km/h (3 Bft) 97,83 %
07.11.2019 02:34 7,4 C 6,1 C 5,6 C 99 % 1001,3 hPa 0,0 l/m 0 min 0 min 0 W/m 12,9 km/h (3 Bft) 98,11 %
07.11.2019 02:36 7,3 C 6,1 C 5,6 C 99 % 1001,3 hPa 0,0 l/m 0 min 0 min 0 W/m 12,9 km/h (3 Bft) 97,87 %
07.11.2019 02:38 7,3 C 6,1 C 5,6 C 99 % 1001,3 hPa 0,0 l/m 0 min 0 min 0 W/m 6,4 km/h (2 Bft) 96,00 %
07.11.2019 02:40 7,3 C 6,1 C 5,6 C 99 % 1001,2 hPa 0,0 l/m 0 min 0 min 0 W/m 3,2 km/h (1 Bft) 97,37 %
07.11.2019 02:42 7,3 C 6,1 C 5,6 C 99 % 1001,2 hPa 0,0 l/m 0 min 0 min 0 W/m 3,2 km/h (1 Bft) 97,83 %
07.11.2019 02:44 7,3 C 6,1 C 5,6 C 99 % 1001,1 hPa 0,0 l/m 0 min 0 min 0 W/m 6,4 km/h (2 Bft) 98,15 %
07.11.2019 02:46 7,3 C 6,1 C 6,1 C 99 % 1001,1 hPa 0,0 l/m 0 min 0 min 0 W/m 12,9 km/h (3 Bft) 97,96 %
07.11.2019 02:48 7,3 C 6,1 C 6,1 C 99 % 1001,1 hPa 0,0 l/m 0 min 0 min 0 W/m 6,4 km/h (2 Bft) 97,37 %
07.11.2019 02:50 7,3 C 6,1 C 6,1 C 99 % 1001,0 hPa 0,0 l/m 0 min 0 min 0 W/m 12,9 km/h (3 Bft) 95,74 %
07.11.2019 02:52 7,2 C 6,1 C 6,1 C 99 % 1001,0 hPa 0,0 l/m 0 min 0 min 0 W/m 6,4 km/h (2 Bft) 98,11 %
07.11.2019 02:54 7,2 C 6,1 C 6,1 C 99 % 1001,0 hPa 0,0 l/m 0 min 0 min 0 W/m 16,1 km/h (3 Bft) 98,00 %
07.11.2019 02:56 7,2 C 6,1 C 5,6 C 99 % 1001,0 hPa 0,0 l/m 0 min 0 min 0 W/m 16,1 km/h (3 Bft) 97,30 %
07.11.2019 02:58 7,2 C 6,1 C 6,1 C 99 % 1000,9 hPa 0,0 l/m 0 min 0 min 0 W/m 19,3 km/h (3 Bft) 95,74 %
07.11.2019 03:00 7,2 C 6,1 C 6,1 C 99 % 1000,9 hPa 0,0 l/m 0 min 0 min 0 W/m 12,9 km/h (3 Bft) 98,11 %
07.11.2019 03:02 7,2 C 6,1 C 6,1 C 99 % 1000,9 hPa 0,0 l/m 0 min 0 min 0 W/m 12,9 km/h (3 Bft) 96,00 %
07.11.2019 03:04 7,2 C 6,7 C 6,1 C 99 % 1000,9 hPa 0,0 l/m 0 min 0 min 0 W/m 16,1 km/h (3 Bft) 97,87 %
07.11.2019 03:06 7,2 C 6,7 C 6,1 C 99 % 1000,8 hPa 0,0 l/m 0 min 0 min 0 W/m 12,9 km/h (3 Bft) 97,30 %
07.11.2019 03:08 7,2 C 6,1 C 6,1 C 99 % 1000,8 hPa 0,0 l/m 0 min 0 min 0 W/m 6,4 km/h (2 Bft) 95,74 %
07.11.2019 03:10 7,2 C 6,1 C 6,1 C 99 % 1000,7 hPa 0,0 l/m 0 min 0 min 0 W/m 6,4 km/h (2 Bft) 95,74 %
07.11.2019 03:12 7,2 C 6,1 C 6,1 C 99 % 1000,6 hPa 0,0 l/m 0 min 0 min 0 W/m 12,9 km/h (3 Bft) 96,23 %
07.11.2019 03:14 7,2 C 6,1 C 6,1 C 99 % 1000,6 hPa 0,0 l/m 0 min 0 min 0 W/m 12,9 km/h (3 Bft) 96,00 %
07.11.2019 03:16 7,2 C 6,1 C 5,6 C 99 % 1000,6 hPa 0,0 l/m 0 min 0 min 0 W/m 12,9 km/h (3 Bft) 94,74 %
07.11.2019 03:18 7,2 C 6,1 C 5,6 C 99 % 1000,6 hPa 0,0 l/m 0 min 0 min 0 W/m 6,4 km/h (2 Bft) 97,83 %
07.11.2019 03:20 7,2 C 6,1 C 5,6 C 99 % 1000,6 hPa 0,0 l/m 0 min 0 min 0 W/m 0,0 km/h (0 Bft) 96,23 %
07.11.2019 03:22 7,2 C 6,1 C 5,6 C 99 % 1000,5 hPa 0,0 l/m 0 min 0 min 0 W/m 12,9 km/h (3 Bft) 94,00 %
07.11.2019 03:24 7,2 C 6,1 C 5,6 C 99 % 1000,4 hPa 0,0 l/m 0 min 0 min 0 W/m 6,4 km/h (2 Bft) 97,37 %
07.11.2019 03:26 7,2 C 6,1 C 5,6 C 99 % 1000,4 hPa 0,0 l/m 0 min 0 min 0 W/m 3,2 km/h (1 Bft) 95,74 %
07.11.2019 03:28 7,1 C 6,1 C 5,6 C 99 % 1000,4 hPa 0,0 l/m 0 min 0 min 0 W/m 3,2 km/h (1 Bft) 92,45 %
07.11.2019 03:30 7,1 C 6,1 C 5,6 C 99 % 1000,4 hPa 0,0 l/m 0 min 0 min 0 W/m 6,4 km/h (2 Bft) 97,87 %
07.11.2019 03:32 7,1 C 6,1 C 5,6 C 99 % 1000,4 hPa 0,0 l/m 0 min 0 min 0 W/m 12,9 km/h (3 Bft) 97,96 %
07.11.2019 03:34 7,1 C 6,1 C 5,6 C 99 % 1000,3 hPa 0,0 l/m 0 min 0 min 0 W/m 3,2 km/h (1 Bft) 97,37 %
07.11.2019 03:36 7,1 C 6,1 C 5,6 C 99 % 1000,3 hPa 0,0 l/m 0 min 0 min 0 W/m 6,4 km/h (2 Bft) 100,00 %
07.11.2019 03:38 7,1 C 6,1 C 5,6 C 99 % 1000,3 hPa 0,0 l/m 0 min 0 min 0 W/m 6,4 km/h (2 Bft) 96,23 %
07.11.2019 03:40 7,1 C 6,1 C 6,1 C 98 % 1000,3 hPa 0,0 l/m 0 min 0 min 0 W/m 12,9 km/h (3 Bft) 97,87 %
07.11.2019 03:42 7,1 C 6,1 C 6,1 C 98 % 1000,3 hPa 0,0 l/m 0 min 0 min 0 W/m 6,4 km/h (2 Bft) 95,92 %
07.11.2019 03:44 7,1 C 6,1 C 6,1 C 98 % 1000,2 hPa 0,0 l/m 0 min 0 min 0 W/m 6,4 km/h (2 Bft) 100,00 %
07.11.2019 03:46 7,1 C 6,1 C 6,1 C 98 % 1000,2 hPa 0,0 l/m 0 min 0 min 0 W/m 3,2 km/h (1 Bft) 95,74 %
07.11.2019 03:48 7,1 C 6,1 C 6,1 C 99 % 1000,3 hPa 0,0 l/m 0 min 0 min 0 W/m 16,1 km/h (3 Bft) 96,23 %
07.11.2019 03:50 7,1 C 6,7 C 6,1 C 99 % 1000,2 hPa 0,0 l/m 0 min 0 min 0 W/m 16,1 km/h (3 Bft) 98,00 %
07.11.2019 03:52 7,1 C 6,7 C 6,1 C 99 % 1000,1 hPa 0,0 l/m 0 min 0 min 0 W/m 6,4 km/h (2 Bft) 97,37 %
07.11.2019 03:54 7,1 C 6,7 C 6,1 C 99 % 1000,2 hPa 0,0 l/m 0 min 0 min 0 W/m 12,9 km/h (3 Bft) 95,65 %
07.11.2019 03:56 7,1 C 6,7 C 6,1 C 99 % 1000,2 hPa 0,0 l/m 0 min 0 min 0 W/m 6,4 km/h (2 Bft) 98,11 %
07.11.2019 03:58 7,2 C 6,7 C 6,1 C 99 % 1000,2 hPa 0,0 l/m 0 min 0 min 0 W/m 3,2 km/h (1 Bft) 98,00 %
07.11.2019 04:00 7,2 C 6,7 C 6,1 C 99 % 1000,1 hPa 0,0 l/m 0 min 0 min 0 W/m 12,9 km/h (3 Bft) 100,00 %
07.11.2019 04:05 7,2 C 6,7 C 6,1 C 99 % 1000,1 hPa 0,0 l/m 0 min 0 min 0 W/m 16,1 km/h (3 Bft) 98,51 %
07.11.2019 04:06 7,2 C 6,7 C 6,1 C 99 % 1000,0 hPa 0,0 l/m 0 min 0 min 0 W/m 16,1 km/h (3 Bft) 91,30 %
07.11.2019 04:08 7,2 C 6,7 C 6,1 C 99 % 1000,0 hPa 0,0 l/m 0 min 0 min 0 W/m 12,9 km/h (3 Bft) 100,00 %
07.11.2019 04:10 7,3 C 6,7 C 6,1 C 99 % 1000,0 hPa 0,0 l/m 0 min 0 min 0 W/m 6,4 km/h (2 Bft) 95,74 %
07.11.2019 04:12 7,3 C 6,7 C 6,1 C 99 % 1000,1 hPa 0,0 l/m 0 min 0 min 0 W/m 6,4 km/h (2 Bft) 97,87 %
07.11.2019 04:14 7,3 C 6,7 C 6,7 C 99 % 1000,0 hPa 0,0 l/m 0 min 0 min 0 W/m 6,4 km/h (2 Bft) 97,87 %
07.11.2019 04:16 7,3 C 6,7 C 6,7 C 99 % 1000,0 hPa 0,0 l/m 0 min 0 min 0 W/m 16,1 km/h (3 Bft) 97,83 %
07.11.2019 04:18 7,3 C 6,7 C 6,7 C 99 % 1000,0 hPa 0,0 l/m 0 min 0 min 0 W/m 6,4 km/h (2 Bft) 97,87 %
07.11.2019 04:20 7,3 C 6,7 C 6,7 C 99 % 1000,0 hPa 0,0 l/m 0 min 0 min 0 W/m 12,9 km/h (3 Bft) 95,74 %
07.11.2019 04:22 7,3 C 6,7 C 6,7 C 99 % 999,9 hPa 0,0 l/m 0 min 0 min 0 W/m 12,9 km/h (3 Bft) 97,87 %
07.11.2019 04:24 7,4 C 6,7 C 6,7 C 99 % 999,9 hPa 0,0 l/m 0 min 0 min 0 W/m 12,9 km/h (3 Bft) 97,87 %
07.11.2019 04:26 7,4 C 6,7 C 6,7 C 99 % 999,9 hPa 0,0 l/m 0 min 0 min 0 W/m 12,9 km/h (3 Bft) 95,74 %
07.11.2019 04:28 7,4 C 6,7 C 6,7 C 99 % 999,9 hPa 0,0 l/m 0 min 0 min 0 W/m 12,9 km/h (3 Bft) 97,83 %
07.11.2019 04:30 7,4 C 6,7 C 6,7 C 99 % 999,8 hPa 0,0 l/m 0 min 0 min 0 W/m 16,1 km/h (3 Bft) 97,87 %
07.11.2019 04:32 7,4 C 6,7 C 6,7 C 99 % 999,8 hPa 0,0 l/m 0 min 0 min 0 W/m 12,9 km/h (3 Bft) 97,87 %
07.11.2019 04:34 7,4 C 6,7 C 6,7 C 99 % 999,8 hPa 0,0 l/m 0 min 0 min 0 W/m 12,9 km/h (3 Bft) 97,87 %
07.11.2019 04:36 7,4 C 6,7 C 6,7 C 99 % 999,8 hPa 0,0 l/m 0 min 0 min 0 W/m 6,4 km/h (2 Bft) 97,87 %
07.11.2019 04:38 7,4 C 6,7 C 6,7 C 99 % 999,8 hPa 0,0 l/m 0 min 0 min 0 W/m 3,2 km/h (1 Bft) 97,87 %
07.11.2019 04:40 7,5 C 6,7 C 6,7 C 99 % 999,8 hPa 0,0 l/m 0 min 0 min 0 W/m 16,1 km/h (3 Bft) 97,83 %
07.11.2019 04:42 7,5 C 6,7 C 6,7 C 99 % 999,8 hPa 0,0 l/m 0 min 0 min 0 W/m 6,4 km/h (2 Bft) 97,87 %
07.11.2019 04:44 7,5 C 6,7 C 6,7 C 99 % 999,8 hPa 0,0 l/m 0 min 0 min 0 W/m 6,4 km/h (2 Bft) 97,87 %
07.11.2019 04:46 7,5 C 6,7 C 6,7 C 99 % 999,8 hPa 0,0 l/m 0 min 0 min 0 W/m 6,4 km/h (2 Bft) 97,87 %
07.11.2019 04:48 7,5 C 6,7 C 6,7 C 99 % 999,7 hPa 0,0 l/m 0 min 0 min 0 W/m 6,4 km/h (2 Bft) 95,74 %
07.11.2019 04:50 7,5 C 6,7 C 6,7 C 99 % 999,7 hPa 0,0 l/m 0 min 0 min 0 W/m 12,9 km/h (3 Bft) 97,87 %
07.11.2019 04:52 7,5 C 6,7 C 6,7 C 99 % 999,7 hPa 0,0 l/m 0 min 0 min 0 W/m 16,1 km/h (3 Bft) 95,65 %
07.11.2019 04:54 7,5 C 6,7 C 6,7 C 99 % 999,6 hPa 0,0 l/m 0 min 0 min 0 W/m 12,9 km/h (3 Bft) 97,87 %
07.11.2019 04:56 7,6 C 6,7 C 6,7 C 99 % 999,6 hPa 0,0 l/m 0 min 0 min 0 W/m 12,9 km/h (3 Bft) 100,00 %
07.11.2019 04:58 7,6 C 6,7 C 6,7 C 99 % 999,5 hPa 0,0 l/m 0 min 0 min 0 W/m 6,4 km/h (2 Bft) 100,00 %
07.11.2019 05:00 7,6 C 6,7 C 6,7 C 99 % 999,5 hPa 0,0 l/m 0 min 0 min 0 W/m 22,5 km/h (4 Bft) 100,00 %
07.11.2019 05:02 7,6 C 6,7 C 6,7 C 99 % 999,5 hPa 0,0 l/m 0 min 0 min 0 W/m 6,4 km/h (2 Bft) 97,83 %
07.11.2019 05:04 7,6 C 6,7 C 6,7 C 99 % 999,4 hPa 0,0 l/m 0 min 0 min 0 W/m 19,3 km/h (3 Bft) 100,00 %
07.11.2019 05:06 7,6 C 6,7 C 6,7 C 99 % 999,4 hPa 0,0 l/m 0 min 0 min 0 W/m 12,9 km/h (3 Bft) 100,00 %
07.11.2019 05:08 7,6 C 6,7 C 6,7 C 99 % 999,4 hPa 0,0 l/m 0 min 0 min 0 W/m 6,4 km/h (2 Bft) 100,00 %
07.11.2019 05:10 7,6 C 6,7 C 6,7 C 99 % 999,4 hPa 0,0 l/m 0 min 0 min 0 W/m 6,4 km/h (2 Bft) 100,00 %
07.11.2019 05:12 7,6 C 6,7 C 6,7 C 99 % 999,4 hPa 0,0 l/m 0 min 0 min 0 W/m 12,9 km/h (3 Bft) 100,00 %
07.11.2019 05:14 7,6 C 6,7 C 6,7 C 99 % 999,4 hPa 0,0 l/m 0 min 0 min 0 W/m 12,9 km/h (3 Bft) 100,00 %
07.11.2019 05:16 7,6 C 6,7 C 6,7 C 99 % 999,4 hPa 0,0 l/m 0 min 0 min 0 W/m 12,9 km/h (3 Bft) 100,00 %
07.11.2019 05:18 7,6 C 6,7 C 6,7 C 99 % 999,4 hPa 0,0 l/m 0 min 0 min 0 W/m 12,9 km/h (3 Bft) 100,00 %
07.11.2019 05:20 7,6 C 6,7 C 6,7 C 99 % 999,4 hPa 0,0 l/m 0 min 0 min 0 W/m 12,9 km/h (3 Bft) 100,00 %
07.11.2019 05:22 7,6 C 6,7 C 6,7 C 99 % 999,4 hPa 0,0 l/m 0 min 0 min 0 W/m 16,1 km/h (3 Bft) 100,00 %
07.11.2019 05:24 7,6 C 6,7 C 6,7 C 99 % 999,4 hPa 0,0 l/m 0 min 0 min 0 W/m 12,9 km/h (3 Bft) 97,87 %
07.11.2019 05:26 7,6 C 6,7 C 6,7 C 99 % 999,3 hPa 0,0 l/m 0 min 0 min 0 W/m 12,9 km/h (3 Bft) 100,00 %
07.11.2019 05:28 7,6 C 7,2 C 6,7 C 99 % 999,3 hPa 0,0 l/m 0 min 0 min 0 W/m 6,4 km/h (2 Bft) 97,87 %
07.11.2019 05:30 7,6 C 7,2 C 6,7 C 99 % 999,3 hPa 0,0 l/m 0 min 0 min 0 W/m 3,2 km/h (1 Bft) 100,00 %
07.11.2019 05:32 7,6 C 7,2 C 6,7 C 99 % 999,3 hPa 0,0 l/m 0 min 0 min 0 W/m 12,9 km/h (3 Bft) 100,00 %
07.11.2019 05:34 7,6 C 7,2 C 6,7 C 99 % 999,2 hPa 0,0 l/m 0 min 0 min 0 W/m 12,9 km/h (3 Bft) 100,00 %
07.11.2019 05:36 7,6 C 7,2 C 6,7 C 99 % 999,2 hPa 0,0 l/m 0 min 2 min 0 W/m 12,9 km/h (3 Bft) 97,83 %
07.11.2019 05:38 7,6 C 7,2 C 6,7 C 99 % 999,2 hPa 0,0 l/m 0 min 2 min 0 W/m 12,9 km/h (3 Bft) 100,00 %
07.11.2019 05:40 7,6 C 7,2 C 6,7 C 99 % 999,2 hPa 0,0 l/m 0 min 0 min 0 W/m 6,4 km/h (2 Bft) 100,00 %
07.11.2019 05:42 7,6 C 6,7 C 6,7 C 99 % 999,2 hPa 0,0 l/m 0 min 0 min 0 W/m 3,2 km/h (1 Bft) 97,96 %
07.11.2019 05:44 7,7 C 6,7 C 6,7 C 99 % 999,1 hPa 0,0 l/m 0 min 0 min 0 W/m 3,2 km/h (1 Bft) 100,00 %
07.11.2019 05:46 7,7 C 7,2 C 6,7 C 99 % 999,1 hPa 0,0 l/m 0 min 0 min 0 W/m 19,3 km/h (3 Bft) 95,74 %
07.11.2019 05:48 7,7 C 7,2 C 6,7 C 99 % 999,0 hPa 0,0 l/m 0 min 0 min 0 W/m 12,9 km/h (3 Bft) 98,11 %
07.11.2019 05:50 7,7 C 7,2 C 6,7 C 99 % 999,0 hPa 0,0 l/m 0 min 0 min 0 W/m 3,2 km/h (1 Bft) 97,96 %
07.11.2019 05:52 7,7 C 7,2 C 6,7 C 99 % 999,0 hPa 0,0 l/m 0 min 0 min 0 W/m 16,1 km/h (3 Bft) 93,62 %
07.11.2019 05:54 7,7 C 7,2 C 6,7 C 99 % 999,0 hPa 0,0 l/m 0 min 2 min 0 W/m 12,9 km/h (3 Bft) 94,74 %
07.11.2019 05:56 7,7 C 7,2 C 6,7 C 99 % 999,0 hPa 0,0 l/m 0 min 0 min 0 W/m 12,9 km/h (3 Bft) 95,74 %
07.11.2019 05:58 7,7 C 7,2 C 6,7 C 99 % 999,0 hPa 0,0 l/m 0 min 0 min 0 W/m 12,9 km/h (3 Bft) 96,23 %
07.11.2019 06:00 7,7 C 7,2 C 6,7 C 99 % 999,0 hPa 0,0 l/m 0 min 0 min 0 W/m 12,9 km/h (3 Bft) 92,00 %
07.11.2019 06:02 7,7 C 7,2 C 6,7 C 99 % 999,0 hPa 0,0 l/m 0 min 0 min 0 W/m 12,9 km/h (3 Bft) 100,00 %
07.11.2019 06:04 7,7 C 7,2 C 6,7 C 99 % 998,9 hPa 0,0 l/m 0 min 0 min 0 W/m 12,9 km/h (3 Bft) 93,62 %
07.11.2019 06:08 7,7 C 7,2 C 6,7 C 99 % 998,8 hPa 0,0 l/m 0 min 4 min 0 W/m 12,9 km/h (3 Bft) 95,00 %
07.11.2019 06:10 7,7 C 7,2 C 6,7 C 99 % 998,8 hPa 0,0 l/m 0 min 0 min 0 W/m 6,4 km/h (2 Bft) 96,00 %
07.11.2019 06:12 7,7 C 7,2 C 6,7 C 99 % 998,8 hPa 0,0 l/m 0 min 0 min 0 W/m 12,9 km/h (3 Bft) 94,59 %
07.11.2019 06:14 7,7 C 7,2 C 6,7 C 99 % 998,8 hPa 0,0 l/m 0 min 0 min 0 W/m 19,3 km/h (3 Bft) 95,74 %
07.11.2019 06:16 7,7 C 7,2 C 6,7 C 99 % 998,8 hPa 0,0 l/m 0 min 0 min 0 W/m 16,1 km/h (3 Bft) 96,00 %
07.11.2019 06:18 7,7 C 7,2 C 6,7 C 99 % 998,8 hPa 0,0 l/m 0 min 0 min 0 W/m 12,9 km/h (3 Bft) 94,34 %
07.11.2019 06:20 7,7 C 7,2 C 6,7 C 99 % 998,7 hPa 0,0 l/m 0 min 0 min 0 W/m 6,4 km/h (2 Bft) 97,37 %
07.11.2019 06:22 7,7 C 7,2 C 6,7 C 99 % 998,8 hPa 0,0 l/m 0 min 0 min 0 W/m 12,9 km/h (3 Bft) 93,88 %
07.11.2019 06:24 7,7 C 7,2 C 6,7 C 99 % 998,7 hPa 0,0 l/m 0 min 0 min 0 W/m 16,1 km/h (3 Bft) 95,74 %
07.11.2019 06:26 7,7 C 7,2 C 6,7 C 99 % 998,7 hPa 0,0 l/m 0 min 0 min 0 W/m 12,9 km/h (3 Bft) 71,70 %
07.11.2019 06:28 7,7 C 7,2 C 6,7 C 99 % 998,7 hPa 0,0 l/m 0 min 0 min 0 W/m 19,3 km/h (3 Bft) 75,00 %
07.11.2019 06:30 7,7 C 7,2 C 6,7 C 99 % 998,7 hPa 0,0 l/m 0 min 0 min 0 W/m 16,1 km/h (3 Bft) 98,00 %
07.11.2019 06:32 7,7 C 7,2 C 6,7 C 99 % 998,7 hPa 0,0 l/m 0 min 0 min 0 W/m 6,4 km/h (2 Bft) 97,87 %
07.11.2019 06:34 7,7 C 7,2 C 6,7 C 99 % 998,7 hPa 0,0 l/m 0 min 0 min 0 W/m 6,4 km/h (2 Bft) 92,45 %
07.11.2019 06:36 7,7 C 7,2 C 6,7 C 99 % 998,7 hPa 0,0 l/m 0 min 0 min 0 W/m 16,1 km/h (3 Bft) 94,74 %
07.11.2019 06:38 7,7 C 7,2 C 6,7 C 99 % 998,7 hPa 0,0 l/m 0 min 0 min 0 W/m 12,9 km/h (3 Bft) 97,96 %
07.11.2019 06:40 7,7 C 7,2 C 6,7 C 99 % 998,6 hPa 0,0 l/m 0 min 0 min 0 W/m 6,4 km/h (2 Bft) 97,87 %
07.11.2019 06:42 7,7 C 7,2 C 6,7 C 99 % 998,6 hPa 0,0 l/m 0 min 0 min 0 W/m 12,9 km/h (3 Bft) 97,87 %
07.11.2019 06:44 7,7 C 7,2 C 6,7 C 99 % 998,6 hPa 0,0 l/m 0 min 0 min 0 W/m 9,7 km/h (2 Bft) 98,11 %
07.11.2019 06:46 7,7 C 7,2 C 6,7 C 99 % 998,5 hPa 0,0 l/m 0 min 0 min 0 W/m 9,7 km/h (2 Bft) 100,00 %
07.11.2019 06:48 7,7 C 7,2 C 6,7 C 99 % 998,4 hPa 0,0 l/m 0 min 0 min 0 W/m 16,1 km/h (3 Bft) 100,00 %
07.11.2019 06:50 7,7 C 7,2 C 6,7 C 99 % 998,4 hPa 0,0 l/m 0 min 0 min 0 W/m 16,1 km/h (3 Bft) 97,87 %
07.11.2019 06:52 7,7 C 7,2 C 6,7 C 99 % 998,4 hPa 0,0 l/m 0 min 0 min 0 W/m 12,9 km/h (3 Bft) 100,00 %
07.11.2019 06:54 7,7 C 7,2 C 6,7 C 99 % 998,3 hPa 0,0 l/m 0 min 2 min 0 W/m 12,9 km/h (3 Bft) 100,00 %
07.11.2019 06:56 7,7 C 7,2 C 6,7 C 99 % 998,4 hPa 0,0 l/m 0 min 0 min 0 W/m 22,5 km/h (4 Bft) 100,00 %
07.11.2019 06:58 7,7 C 7,2 C 6,7 C 99 % 998,4 hPa 0,0 l/m 0 min 0 min 0 W/m 16,1 km/h (3 Bft) 100,00 %
07.11.2019 07:00 7,7 C 7,2 C 6,7 C 99 % 998,4 hPa 0,0 l/m 0 min 0 min 0 W/m 16,1 km/h (3 Bft) 98,11 %
07.11.2019 07:02 7,8 C 7,2 C 6,7 C 99 % 998,4 hPa 0,0 l/m 0 min 0 min 0 W/m 16,1 km/h (3 Bft) 97,44 %
07.11.2019 07:04 7,7 C 7,2 C 6,7 C 99 % 998,4 hPa 0,0 l/m 0 min 0 min 0 W/m 16,1 km/h (3 Bft) 93,88 %
07.11.2019 07:06 7,8 C 7,2 C 6,7 C 99 % 998,5 hPa 0,0 l/m 0 min 0 min 0 W/m 12,9 km/h (3 Bft) 97,87 %
07.11.2019 07:08 7,8 C 7,2 C 6,7 C 99 % 998,4 hPa 0,0 l/m 0 min 0 min 0 W/m 12,9 km/h (3 Bft) 96,23 %
07.11.2019 07:10 7,8 C 7,2 C 6,7 C 99 % 998,4 hPa 0,0 l/m 0 min 0 min 0 W/m 9,7 km/h (2 Bft) 97,87 %
07.11.2019 07:12 7,8 C 7,2 C 6,7 C 99 % 998,3 hPa 0,0 l/m 0 min 0 min 0 W/m 12,9 km/h (3 Bft) 94,74 %
07.11.2019 07:14 7,8 C 7,2 C 6,7 C 99 % 998,3 hPa 0,0 l/m 0 min 0 min 0 W/m 12,9 km/h (3 Bft) 97,96 %
07.11.2019 07:16 7,8 C 7,2 C 6,7 C 99 % 998,3 hPa 0,0 l/m 0 min 2 min 0 W/m 16,1 km/h (3 Bft) 97,87 %
07.11.2019 07:18 7,8 C 7,2 C 6,7 C 99 % 998,2 hPa 0,0 l/m 0 min 0 min 0 W/m 22,5 km/h (4 Bft) 98,11 %
07.11.2019 07:20 7,8 C 7,2 C 6,7 C 99 % 998,3 hPa 0,0 l/m 0 min 2 min 0 W/m 19,3 km/h (3 Bft) 94,74 %
07.11.2019 07:22 7,8 C 7,2 C 6,7 C 99 % 998,3 hPa 0,0 l/m 0 min 2 min 0 W/m 12,9 km/h (3 Bft) 97,96 %
07.11.2019 07:24 7,8 C 7,2 C 6,7 C 99 % 998,3 hPa 0,0 l/m 0 min 0 min 0 W/m 19,3 km/h (3 Bft) 97,87 %
07.11.2019 07:26 7,8 C 7,2 C 6,7 C 99 % 998,3 hPa 0,0 l/m 0 min 0 min 0 W/m 12,9 km/h (3 Bft) 96,23 %
07.11.2019 07:28 7,8 C 7,2 C 6,7 C 99 % 998,3 hPa 0,0 l/m 0 min 2 min 0 W/m 12,9 km/h (3 Bft) 94,74 %
07.11.2019 07:30 7,9 C 7,2 C 6,7 C 99 % 998,2 hPa 0,0 l/m 0 min 2 min 0 W/m 19,3 km/h (3 Bft) 98,00 %
07.11.2019 07:32 7,9 C 7,2 C 6,7 C 99 % 998,2 hPa 0,0 l/m 0 min 2 min 0 W/m 19,3 km/h (3 Bft) 97,83 %
07.11.2019 07:34 7,9 C 7,2 C 6,7 C 99 % 998,2 hPa 0,0 l/m 0 min 0 min 0 W/m 16,1 km/h (3 Bft) 96,23 %
07.11.2019 07:36 7,9 C 7,2 C 6,7 C 99 % 998,1 hPa 0,0 l/m 0 min 0 min 0 W/m 16,1 km/h (3 Bft) 100,00 %
07.11.2019 07:38 7,9 C 7,2 C 6,7 C 99 % 998,1 hPa 0,0 l/m 0 min 2 min 0 W/m 16,1 km/h (3 Bft) 95,92 %
07.11.2019 07:40 7,9 C 7,2 C 6,7 C 99 % 998,1 hPa 0,0 l/m 0 min 2 min 0 W/m 16,1 km/h (3 Bft) 95,74 %
07.11.2019 07:42 7,9 C 7,2 C 6,7 C 99 % 998,1 hPa 0,0 l/m 0 min 0 min 0 W/m 35,4 km/h (5 Bft) 97,87 %
07.11.2019 07:44 7,9 C 7,2 C 6,7 C 99 % 998,1 hPa 0,0 l/m 0 min 0 min 0 W/m 19,3 km/h (3 Bft) 97,83 %
07.11.2019 07:46 7,9 C 7,2 C 6,7 C 99 % 998,1 hPa 0,0 l/m 0 min 0 min 0 W/m 16,1 km/h (3 Bft) 96,23 %
07.11.2019 07:48 7,9 C 7,2 C 7,2 C 99 % 998,2 hPa 0,0 l/m 0 min 2 min 0 W/m 19,3 km/h (3 Bft) 97,87 %
07.11.2019 07:50 8,0 C 7,2 C 7,2 C 99 % 998,1 hPa 0,0 l/m 0 min 0 min 0 W/m 22,5 km/h (4 Bft) 94,74 %
07.11.2019 07:52 8,0 C 7,2 C 7,2 C 99 % 998,1 hPa 0,0 l/m 0 min 0 min 0 W/m 16,1 km/h (3 Bft) 98,00 %
07.11.2019 07:54 8,0 C 7,2 C 7,2 C 99 % 998,1 hPa 0,0 l/m 0 min 2 min 0 W/m 19,3 km/h (3 Bft) 100,00 %
07.11.2019 07:56 8,0 C 7,2 C 7,2 C 99 % 998,2 hPa 0,0 l/m 0 min 2 min 2 W/m 25,7 km/h (4 Bft) 100,00 %
07.11.2019 07:58 8,1 C 7,2 C 7,2 C 99 % 998,1 hPa 0,0 l/m 0 min 0 min 5 W/m 19,3 km/h (3 Bft) 100,00 %
07.11.2019 08:00 8,1 C 7,2 C 7,2 C 99 % 998,1 hPa 0,0 l/m 0 min 0 min 5 W/m 19,3 km/h (3 Bft) 100,00 %
07.11.2019 08:02 8,1 C 7,8 C 7,2 C 99 % 998,2 hPa 0,0 l/m 0 min 0 min 5 W/m 19,3 km/h (3 Bft) 100,00 %
07.11.2019 08:04 8,1 C 7,8 C 7,2 C 99 % 998,2 hPa 0,0 l/m 0 min 0 min 5 W/m 19,3 km/h (3 Bft) 62,26 %
07.11.2019 08:06 8,1 C 7,8 C 7,2 C 99 % 998,1 hPa 0,0 l/m 0 min 0 min 7 W/m 22,5 km/h (4 Bft) 100,00 %
07.11.2019 08:08 8,1 C 7,8 C 7,2 C 99 % 998,1 hPa 0,0 l/m 0 min 0 min 9 W/m 25,7 km/h (4 Bft) 97,87 %
07.11.2019 08:10 8,1 C 7,8 C 7,2 C 99 % 998,1 hPa 0,0 l/m 0 min 0 min 9 W/m 19,3 km/h (3 Bft) 100,00 %
07.11.2019 08:12 8,1 C 7,8 C 7,2 C 99 % 998,0 hPa 0,0 l/m 0 min 0 min 11 W/m 22,5 km/h (4 Bft) 100,00 %
07.11.2019 08:14 8,2 C 7,8 C 7,2 C 99 % 997,9 hPa 0,0 l/m 0 min 0 min 12 W/m 25,7 km/h (4 Bft) 100,00 %
07.11.2019 08:16 8,2 C 7,8 C 7,2 C 99 % 998,0 hPa 0,0 l/m 0 min 0 min 12 W/m 19,3 km/h (3 Bft) 97,37 %
07.11.2019 08:18 8,2 C 7,8 C 7,2 C 99 % 997,9 hPa 0,0 l/m 0 min 0 min 12 W/m 22,5 km/h (4 Bft) 97,96 %
07.11.2019 08:20 8,2 C 7,8 C 7,2 C 99 % 997,9 hPa 0,0 l/m 0 min 0 min 14 W/m 22,5 km/h (4 Bft) 97,87 %
07.11.2019 08:22 8,2 C 7,8 C 7,2 C 99 % 997,9 hPa 0,0 l/m 0 min 0 min 14 W/m 19,3 km/h (3 Bft) 96,23 %
07.11.2019 08:24 8,2 C 7,8 C 7,2 C 99 % 997,9 hPa 0,0 l/m 0 min 0 min 18 W/m 12,9 km/h (3 Bft) 97,37 %
07.11.2019 08:26 8,2 C 7,8 C 7,2 C 99 % 997,9 hPa 0,0 l/m 0 min 0 min 20 W/m 16,1 km/h (3 Bft) 98,00 %
07.11.2019 08:28 8,2 C 7,8 C 7,2 C 99 % 997,9 hPa 0,0 l/m 0 min 0 min 24 W/m 19,3 km/h (3 Bft) 97,87 %
07.11.2019 08:30 8,2 C 7,8 C 7,2 C 99 % 997,9 hPa 0,0 l/m 0 min 0 min 26 W/m 12,9 km/h (3 Bft) 98,11 %
07.11.2019 08:32 8,3 C 7,8 C 7,2 C 99 % 997,9 hPa 0,0 l/m 0 min 0 min 26 W/m 22,5 km/h (4 Bft) 97,37 %
07.11.2019 08:34 8,3 C 7,8 C 7,8 C 99 % 997,9 hPa 0,0 l/m 0 min 0 min 28 W/m 22,5 km/h (4 Bft) 97,96 %
07.11.2019 08:36 8,3 C 8,3 C 7,8 C 99 % 997,9 hPa 0,0 l/m 0 min 0 min 28 W/m 19,3 km/h (3 Bft) 97,87 %
07.11.2019 08:38 8,3 C 8,3 C 7,8 C 98 % 997,9 hPa 0,0 l/m 0 min 0 min 30 W/m 19,3 km/h (3 Bft) 96,23 %
07.11.2019 08:40 8,3 C 8,3 C 7,8 C 98 % 997,8 hPa 0,0 l/m 0 min 0 min 30 W/m 16,1 km/h (3 Bft) 97,37 %
07.11.2019 08:42 8,3 C 8,3 C 7,8 C 98 % 997,8 hPa 0,0 l/m 0 min 0 min 34 W/m 25,7 km/h (4 Bft) 97,96 %
07.11.2019 08:44 8,3 C 8,3 C 7,8 C 98 % 997,8 hPa 0,0 l/m 0 min 0 min 37 W/m 19,3 km/h (3 Bft) 97,87 %
07.11.2019 08:46 8,4 C 8,3 C 7,8 C 98 % 997,8 hPa 0,0 l/m 0 min 0 min 35 W/m 16,1 km/h (3 Bft) 98,11 %
07.11.2019 08:48 8,4 C 8,3 C 7,8 C 98 % 997,8 hPa 0,0 l/m 0 min 0 min 38 W/m 16,1 km/h (3 Bft) 97,37 %
07.11.2019 08:50 8,4 C 8,3 C 7,8 C 98 % 997,8 hPa 0,0 l/m 0 min 0 min 41 W/m 16,1 km/h (3 Bft) 98,00 %
07.11.2019 08:52 8,4 C 8,3 C 7,8 C 98 % 997,8 hPa 0,0 l/m 0 min 0 min 41 W/m 25,7 km/h (4 Bft) 97,87 %
07.11.2019 08:54 8,4 C 8,3 C 7,8 C 98 % 997,8 hPa 0,0 l/m 0 min 0 min 39 W/m 19,3 km/h (3 Bft) 97,83 %
07.11.2019 08:56 8,5 C 8,3 C 7,8 C 98 % 997,8 hPa 0,0 l/m 0 min 0 min 43 W/m 22,5 km/h (4 Bft) 94,34 %
07.11.2019 08:58 8,5 C 8,3 C 7,8 C 98 % 997,7 hPa 0,0 l/m 0 min 0 min 52 W/m 19,3 km/h (3 Bft) 97,37 %
07.11.2019 09:00 8,6 C 8,9 C 7,8 C 98 % 997,7 hPa 0,0 l/m 2 min 0 min 92 W/m 19,3 km/h (3 Bft) 98,00 %
07.11.2019 09:02 8,6 C 8,9 C 7,8 C 98 % 997,6 hPa 0,0 l/m 2 min 0 min 92 W/m 22,5 km/h (4 Bft) 97,87 %
07.11.2019 09:04 8,6 C 8,9 C 8,3 C 98 % 997,6 hPa 0,0 l/m 0 min 0 min 89 W/m 25,7 km/h (4 Bft) 97,87 %
07.11.2019 09:06 8,6 C 8,9 C 8,3 C 98 % 997,6 hPa 0,0 l/m 2 min 0 min 118 W/m 22,5 km/h (4 Bft) 96,23 %
07.11.2019 09:08 8,7 C 8,9 C 8,3 C 98 % 997,6 hPa 0,0 l/m 0 min 0 min 88 W/m 16,1 km/h (3 Bft) 95,65 %
07.11.2019 09:10 8,7 C 8,9 C 8,3 C 98 % 997,5 hPa 0,0 l/m 0 min 0 min 82 W/m 22,5 km/h (4 Bft) 97,37 %
07.11.2019 09:12 8,7 C 8,9 C 8,3 C 98 % 997,5 hPa 0,0 l/m 0 min 0 min 70 W/m 25,7 km/h (4 Bft) 96,00 %
07.11.2019 09:14 8,8 C 8,9 C 8,3 C 98 % 997,5 hPa 0,0 l/m 0 min 0 min 63 W/m 29,0 km/h (5 Bft) 97,87 %
07.11.2019 09:16 8,8 C 8,9 C 8,3 C 98 % 997,4 hPa 0,0 l/m 0 min 0 min 62 W/m 25,7 km/h (4 Bft) 98,11 %
07.11.2019 09:18 8,8 C 8,9 C 8,3 C 98 % 997,4 hPa 0,0 l/m 0 min 0 min 66 W/m 29,0 km/h (5 Bft) 97,37 %
07.11.2019 09:20 8,8 C 8,9 C 8,3 C 98 % 997,4 hPa 0,0 l/m 0 min 0 min 75 W/m 25,7 km/h (4 Bft) 97,96 %
07.11.2019 09:22 8,8 C 8,9 C 8,3 C 98 % 997,4 hPa 0,0 l/m 0 min 0 min 83 W/m 35,4 km/h (5 Bft) 97,87 %
07.11.2019 09:24 8,9 C 9,4 C 8,3 C 97 % 997,4 hPa 0,0 l/m 0 min 0 min 95 W/m 25,7 km/h (4 Bft) 98,11 %
07.11.2019 09:26 8,9 C 9,4 C 8,3 C 97 % 997,4 hPa 0,0 l/m 0 min 0 min 108 W/m 25,7 km/h (4 Bft) 97,37 %
07.11.2019 09:28 8,9 C 9,4 C 8,3 C 97 % 997,5 hPa 0,0 l/m 2 min 0 min 113 W/m 25,7 km/h (4 Bft) 97,96 %
07.11.2019 09:30 9,0 C 9,4 C 8,3 C 97 % 997,4 hPa 0,0 l/m 0 min 0 min 104 W/m 16,1 km/h (3 Bft) 97,87 %
07.11.2019 09:32 9,0 C 9,4 C 8,3 C 97 % 997,3 hPa 0,0 l/m 0 min 0 min 90 W/m 22,5 km/h (4 Bft) 97,87 %
07.11.2019 09:34 9,1 C 9,4 C 8,3 C 97 % 997,3 hPa 0,0 l/m 0 min 0 min 82 W/m 29,0 km/h (5 Bft) 96,23 %
07.11.2019 09:36 9,1 C 8,9 C 8,3 C 97 % 997,2 hPa 0,0 l/m 0 min 0 min 71 W/m 19,3 km/h (3 Bft) 94,74 %
07.11.2019 09:38 9,1 C 8,9 C 8,3 C 97 % 997,2 hPa 0,0 l/m 0 min 0 min 63 W/m 19,3 km/h (3 Bft) 97,87 %
07.11.2019 09:40 9,1 C 8,9 C 8,3 C 97 % 997,2 hPa 0,0 l/m 0 min 0 min 60 W/m 22,5 km/h (4 Bft) 95,92 %
07.11.2019 09:42 9,1 C 8,9 C 8,3 C 96 % 997,1 hPa 0,0 l/m 0 min 0 min 56 W/m 16,1 km/h (3 Bft) 97,87 %
07.11.2019 09:44 9,1 C 8,9 C 8,3 C 96 % 997,2 hPa 0,0 l/m 0 min 0 min 59 W/m 25,7 km/h (4 Bft) 98,11 %
07.11.2019 09:46 9,1 C 8,9 C 8,3 C 96 % 997,3 hPa 0,0 l/m 0 min 0 min 65 W/m 25,7 km/h (4 Bft) 100,00 %
07.11.2019 09:48 9,2 C 9,4 C 8,3 C 96 % 997,1 hPa 0,0 l/m 0 min 0 min 81 W/m 35,4 km/h (5 Bft) 98,00 %
07.11.2019 09:50 9,2 C 9,4 C 8,3 C 96 % 997,1 hPa 0,0 l/m 0 min 0 min 98 W/m 19,3 km/h (3 Bft) 100,00 %
07.11.2019 09:52 9,2 C 9,4 C 8,9 C 96 % 997,1 hPa 0,0 l/m 0 min 0 min 116 W/m 22,5 km/h (4 Bft) 100,00 %
07.11.2019 09:54 9,2 C 9,4 C 8,9 C 96 % 997,1 hPa 0,0 l/m 0 min 0 min 130 W/m 19,3 km/h (3 Bft) 97,37 %
07.11.2019 09:56 9,3 C 10,0 C 8,9 C 96 % 997,1 hPa 0,0 l/m 2 min 0 min 136 W/m 19,3 km/h (3 Bft) 100,00 %
07.11.2019 09:58 9,3 C 10,0 C 8,9 C 96 % 997,1 hPa 0,0 l/m 2 min 0 min 144 W/m 22,5 km/h (4 Bft) 97,87 %
07.11.2019 10:00 9,3 C 10,0 C 8,9 C 95 % 997,0 hPa 0,0 l/m 2 min 0 min 158 W/m 25,7 km/h (4 Bft) 100,00 %
07.11.2019 10:02 9,4 C 10,0 C 9,4 C 96 % 997,0 hPa 0,0 l/m 2 min 0 min 164 W/m 19,3 km/h (3 Bft) 100,00 %
07.11.2019 10:04 9,4 C 10,6 C 9,4 C 95 % 997,0 hPa 0,0 l/m 2 min 0 min 166 W/m 19,3 km/h (3 Bft) 97,96 %
07.11.2019 10:06 9,5 C 10,6 C 9,4 C 95 % 997,0 hPa 0,0 l/m 2 min 0 min 167 W/m 22,5 km/h (4 Bft) 95,74 %
07.11.2019 10:08 9,6 C 10,6 C 9,4 C 95 % 996,9 hPa 0,0 l/m 2 min 0 min 171 W/m 29,0 km/h (5 Bft) 98,11 %
07.11.2019 10:10 9,6 C 10,6 C 9,4 C 95 % 997,0 hPa 0,0 l/m 2 min 0 min 183 W/m 22,5 km/h (4 Bft) 97,87 %
07.11.2019 10:12 9,6 C 10,6 C 9,4 C 95 % 997,0 hPa 0,0 l/m 2 min 0 min 161 W/m 22,5 km/h (4 Bft) 97,37 %
07.11.2019 10:14 9,7 C 10,6 C 9,4 C 95 % 996,9 hPa 0,0 l/m 0 min 0 min 144 W/m 25,7 km/h (4 Bft) 97,96 %
07.11.2019 10:16 9,7 C 10,6 C 9,4 C 95 % 996,9 hPa 0,0 l/m 0 min 0 min 125 W/m 19,3 km/h (3 Bft) 97,87 %
07.11.2019 10:18 9,8 C 10,6 C 9,4 C 94 % 996,9 hPa 0,0 l/m 0 min 0 min 129 W/m 19,3 km/h (3 Bft) 96,23 %
07.11.2019 10:20 9,8 C 10,0 C 9,4 C 94 % 996,9 hPa 0,0 l/m 0 min 0 min 117 W/m 25,7 km/h (4 Bft) 100,00 %
07.11.2019 10:22 9,8 C 10,0 C 9,4 C 94 % 997,0 hPa 0,0 l/m 0 min 0 min 109 W/m 19,3 km/h (3 Bft) 96,00 %
07.11.2019 10:24 9,8 C 10,0 C 9,4 C 94 % 996,9 hPa 0,0 l/m 0 min 0 min 102 W/m 22,5 km/h (4 Bft) 97,87 %
07.11.2019 10:26 9,8 C 10,0 C 9,4 C 94 % 996,9 hPa 0,0 l/m 0 min 0 min 100 W/m 19,3 km/h (3 Bft) 98,11 %
07.11.2019 10:28 9,9 C 10,0 C 9,4 C 94 % 996,9 hPa 0,0 l/m 0 min 0 min 107 W/m 25,7 km/h (4 Bft) 94,74 %
07.11.2019 10:30 9,9 C 10,0 C 9,4 C 93 % 996,9 hPa 0,0 l/m 0 min 0 min 126 W/m 38,6 km/h (5 Bft) 97,96 %
07.11.2019 10:32 9,9 C 10,0 C 9,4 C 93 % 996,9 hPa 0,0 l/m 0 min 0 min 150 W/m 29,0 km/h (5 Bft) 97,87 %
07.11.2019 10:34 9,9 C 10,6 C 9,4 C 93 % 997,0 hPa 0,0 l/m 2 min 0 min 162 W/m 29,0 km/h (5 Bft) 97,87 %
07.11.2019 10:36 9,9 C 10,0 C 9,4 C 93 % 996,7 hPa 0,0 l/m 0 min 0 min 154 W/m 35,4 km/h (5 Bft) 98,11 %
07.11.2019 10:38 9,9 C 10,0 C 9,4 C 92 % 996,8 hPa 0,0 l/m 0 min 0 min 143 W/m 35,4 km/h (5 Bft) 94,74 %
07.11.2019 10:40 10,0 C 10,6 C 9,4 C 92 % 996,9 hPa 0,0 l/m 0 min 0 min 142 W/m 25,7 km/h (4 Bft) 93,88 %
07.11.2019 10:42 10,0 C 10,6 C 9,4 C 92 % 996,7 hPa 0,0 l/m 0 min 0 min 134 W/m 25,7 km/h (4 Bft) 95,74 %
07.11.2019 10:44 10,1 C 10,6 C 9,4 C 92 % 996,7 hPa 0,0 l/m 0 min 0 min 126 W/m 19,3 km/h (3 Bft) 96,23 %
07.11.2019 10:46 10,1 C 10,0 C 9,4 C 92 % 996,7 hPa 0,0 l/m 0 min 0 min 121 W/m 38,6 km/h (5 Bft) 92,11 %
07.11.2019 10:48 10,1 C 10,0 C 9,4 C 92 % 996,7 hPa 0,0 l/m 0 min 0 min 118 W/m 25,7 km/h (4 Bft) 96,00 %
07.11.2019 10:50 10,1 C 10,0 C 9,4 C 92 % 996,8 hPa 0,0 l/m 0 min 0 min 108 W/m 19,3 km/h (3 Bft) 95,65 %
07.11.2019 10:52 10,1 C 10,0 C 9,4 C 92 % 996,8 hPa 0,0 l/m 0 min 0 min 100 W/m 19,3 km/h (3 Bft) 94,34 %
07.11.2019 10:54 10,1 C 10,0 C 9,4 C 92 % 996,8 hPa 0,0 l/m 0 min 0 min 94 W/m 41,8 km/h (6 Bft) 94,87 %
07.11.2019 10:56 10,1 C 10,0 C 9,4 C 92 % 996,8 hPa 0,0 l/m 0 min 0 min 84 W/m 22,5 km/h (4 Bft) 95,92 %
07.11.2019 10:58 10,1 C 10,0 C 9,4 C 92 % 996,8 hPa 0,0 l/m 0 min 0 min 81 W/m 19,3 km/h (3 Bft) 93,62 %
07.11.2019 11:00 10,1 C 10,0 C 9,4 C 92 % 996,8 hPa 0,0 l/m 0 min 0 min 85 W/m 19,3 km/h (3 Bft) 96,23 %
07.11.2019 11:02 10,1 C 9,4 C 8,9 C 92 % 996,8 hPa 0,0 l/m 0 min 2 min 91 W/m 22,5 km/h (4 Bft) 92,11 %
07.11.2019 11:04 10,1 C 9,4 C 8,9 C 91 % 996,9 hPa 0,0 l/m 0 min 0 min 99 W/m 35,4 km/h (5 Bft) 95,92 %
07.11.2019 11:06 10,1 C 9,4 C 8,9 C 91 % 996,7 hPa 0,0 l/m 0 min 0 min 104 W/m 48,3 km/h (6 Bft) 93,62 %
07.11.2019 11:08 10,1 C 9,4 C 8,3 C 91 % 996,9 hPa 0,0 l/m 0 min 0 min 99 W/m 32,2 km/h (5 Bft) 94,34 %
07.11.2019 11:10 10,1 C 8,9 C 8,3 C 91 % 996,8 hPa 0,0 l/m 0 min 2 min 88 W/m 51,5 km/h (7 Bft) 92,11 %
07.11.2019 11:12 10,1 C 8,9 C 7,8 C 91 % 996,8 hPa 0,0 l/m 0 min 2 min 81 W/m 29,0 km/h (5 Bft) 95,92 %
07.11.2019 11:14 10,1 C 8,9 C 7,8 C 91 % 996,7 hPa 0,0 l/m 0 min 2 min 80 W/m 35,4 km/h (5 Bft) 95,74 %
07.11.2019 11:16 10,1 C 8,3 C 7,8 C 92 % 996,7 hPa 0,0 l/m 0 min 2 min 85 W/m 35,4 km/h (5 Bft) 98,11 %
07.11.2019 11:18 10,1 C 8,3 C 7,8 C 91 % 996,7 hPa 0,0 l/m 0 min 2 min 89 W/m 25,7 km/h (4 Bft) 97,37 %
07.11.2019 11:20 10,1 C 8,3 C 7,8 C 92 % 996,7 hPa 0,0 l/m 0 min 2 min 90 W/m 25,7 km/h (4 Bft) 98,00 %
07.11.2019 11:22 10,0 C 8,3 C 7,8 C 92 % 996,7 hPa 0,0 l/m 0 min 2 min 86 W/m 25,7 km/h (4 Bft) 97,87 %
07.11.2019 11:25 10,0 C 8,3 C 7,8 C 92 % 996,7 hPa 0,0 l/m 0 min 3 min 71 W/m 19,3 km/h (3 Bft) 100,00 %
07.11.2019 11:26 10,0 C 8,3 C 7,8 C 92 % 996,7 hPa 0,0 l/m 0 min 1 min 65 W/m 16,1 km/h (3 Bft) 100,00 %
07.11.2019 11:28 9,9 C 8,3 C 7,8 C 92 % 996,7 hPa 0,0 l/m 0 min 2 min 62 W/m 32,2 km/h (5 Bft) 100,00 %
07.11.2019 11:30 9,9 C 8,3 C 7,8 C 92 % 996,7 hPa 0,0 l/m 0 min 2 min 59 W/m 22,5 km/h (4 Bft) 97,87 %
07.11.2019 11:32 9,9 C 8,3 C 7,8 C 92 % 996,7 hPa 0,0 l/m 0 min 2 min 52 W/m 32,2 km/h (5 Bft) 100,00 %
07.11.2019 11:34 9,9 C 8,3 C 7,8 C 92 % 996,7 hPa 0,0 l/m 0 min 2 min 46 W/m 22,5 km/h (4 Bft) 100,00 %
07.11.2019 11:36 9,9 C 8,3 C 7,8 C 93 % 996,7 hPa 0,2 l/m 0 min 2 min 42 W/m 29,0 km/h (5 Bft) 97,87 %
07.11.2019 11:38 9,9 C 7,8 C 7,8 C 93 % 996,6 hPa 0,0 l/m 0 min 2 min 39 W/m 38,6 km/h (5 Bft) 100,00 %
07.11.2019 11:40 9,8 C 7,8 C 7,8 C 93 % 996,8 hPa 0,0 l/m 0 min 2 min 39 W/m 22,5 km/h (4 Bft) 100,00 %
07.11.2019 11:42 9,8 C 7,8 C 7,8 C 93 % 996,6 hPa 0,2 l/m 0 min 2 min 36 W/m 25,7 km/h (4 Bft) 100,00 %
07.11.2019 11:44 9,8 C 7,8 C 7,2 C 93 % 996,6 hPa 0,0 l/m 0 min 2 min 34 W/m 29,0 km/h (5 Bft) 100,00 %
07.11.2019 11:46 9,8 C 7,8 C 7,2 C 93 % 996,5 hPa 0,0 l/m 0 min 2 min 34 W/m 35,4 km/h (5 Bft) 100,00 %
07.11.2019 11:48 9,7 C 7,8 C 7,2 C 93 % 996,5 hPa 0,0 l/m 0 min 2 min 36 W/m 25,7 km/h (4 Bft) 100,00 %
07.11.2019 11:50 9,7 C 7,8 C 7,2 C 94 % 996,5 hPa 0,2 l/m 0 min 2 min 31 W/m 35,4 km/h (5 Bft) 100,00 %
07.11.2019 11:52 9,7 C 7,8 C 7,2 C 94 % 996,5 hPa 0,0 l/m 0 min 2 min 34 W/m 32,2 km/h (5 Bft) 95,74 %
07.11.2019 11:54 9,6 C 7,8 C 7,2 C 94 % 996,4 hPa 0,2 l/m 0 min 2 min 36 W/m 38,6 km/h (5 Bft) 97,87 %
07.11.2019 11:56 9,6 C 7,8 C 7,2 C 94 % 996,4 hPa 0,0 l/m 0 min 2 min 38 W/m 25,7 km/h (4 Bft) 97,87 %
07.11.2019 11:58 9,6 C 7,8 C 7,2 C 94 % 996,4 hPa 0,0 l/m 0 min 2 min 38 W/m 35,4 km/h (5 Bft) 95,74 %
07.11.2019 12:00 9,5 C 7,8 C 7,2 C 94 % 996,4 hPa 0,0 l/m 0 min 2 min 44 W/m 35,4 km/h (5 Bft) 95,74 %
07.11.2019 12:02 9,5 C 7,8 C 7,2 C 94 % 996,3 hPa 0,0 l/m 0 min 2 min 47 W/m 35,4 km/h (5 Bft) 97,83 %
07.11.2019 12:04 9,4 C 7,8 C 7,2 C 94 % 996,3 hPa 0,2 l/m 0 min 2 min 39 W/m 16,1 km/h (3 Bft) 97,87 %
07.11.2019 12:08 9,4 C 7,8 C 7,2 C 94 % 996,2 hPa 0,0 l/m 0 min 4 min 31 W/m 22,5 km/h (4 Bft) 96,81 %
07.11.2019 12:10 9,4 C 7,8 C 7,2 C 95 % 996,2 hPa 0,0 l/m 0 min 2 min 36 W/m 19,3 km/h (3 Bft) 97,87 %
07.11.2019 12:12 9,4 C 7,8 C 7,2 C 95 % 996,2 hPa 0,0 l/m 0 min 2 min 40 W/m 19,3 km/h (3 Bft) 97,87 %
07.11.2019 12:14 9,4 C 7,8 C 7,2 C 95 % 996,1 hPa 0,0 l/m 0 min 2 min 40 W/m 19,3 km/h (3 Bft) 97,83 %
07.11.2019 12:16 9,4 C 7,8 C 7,2 C 95 % 996,1 hPa 0,2 l/m 0 min 2 min 39 W/m 19,3 km/h (3 Bft) 95,74 %
07.11.2019 12:18 9,3 C 7,8 C 7,8 C 95 % 996,2 hPa 0,0 l/m 0 min 2 min 35 W/m 22,5 km/h (4 Bft) 97,87 %
07.11.2019 12:20 9,3 C 7,8 C 7,2 C 95 % 996,1 hPa 0,0 l/m 0 min 2 min 31 W/m 25,7 km/h (4 Bft) 97,87 %
07.11.2019 12:22 9,3 C 7,8 C 7,2 C 95 % 996,1 hPa 0,0 l/m 0 min 2 min 30 W/m 35,4 km/h (5 Bft) 97,87 %
07.11.2019 12:24 9,3 C 7,8 C 7,2 C 95 % 996,1 hPa 0,2 l/m 0 min 2 min 28 W/m 29,0 km/h (5 Bft) 97,87 %
07.11.2019 12:26 9,3 C 7,8 C 7,2 C 96 % 996,1 hPa 0,0 l/m 0 min 2 min 26 W/m 35,4 km/h (5 Bft) 95,65 %
07.11.2019 12:28 9,3 C 7,8 C 7,2 C 95 % 996,0 hPa 0,0 l/m 0 min 2 min 26 W/m 35,4 km/h (5 Bft) 97,87 %
07.11.2019 12:30 9,3 C 7,8 C 7,2 C 96 % 996,1 hPa 0,0 l/m 0 min 2 min 22 W/m 22,5 km/h (4 Bft) 97,87 %
07.11.2019 12:32 9,3 C 7,8 C 7,2 C 96 % 996,0 hPa 0,2 l/m 0 min 2 min 20 W/m 25,7 km/h (4 Bft) 97,87 %
07.11.2019 12:34 9,3 C 7,8 C 7,2 C 96 % 996,1 hPa 0,0 l/m 0 min 2 min 24 W/m 19,3 km/h (3 Bft) 95,74 %
07.11.2019 12:36 9,3 C 7,8 C 7,2 C 96 % 996,1 hPa 0,0 l/m 0 min 2 min 27 W/m 22,5 km/h (4 Bft) 97,87 %
07.11.2019 12:38 9,2 C 7,8 C 7,2 C 96 % 996,0 hPa 0,0 l/m 0 min 2 min 24 W/m 25,7 km/h (4 Bft) 97,83 %
07.11.2019 12:40 9,2 C 7,8 C 7,2 C 96 % 996,0 hPa 0,2 l/m 0 min 2 min 29 W/m 25,7 km/h (4 Bft) 97,87 %
07.11.2019 12:42 9,2 C 7,8 C 7,2 C 96 % 996,0 hPa 0,0 l/m 0 min 2 min 36 W/m 29,0 km/h (5 Bft) 95,74 %
07.11.2019 12:44 9,2 C 7,8 C 7,2 C 96 % 996,0 hPa 0,2 l/m 0 min 2 min 42 W/m 35,4 km/h (5 Bft) 97,87 %
07.11.2019 12:46 9,2 C 7,8 C 7,8 C 96 % 996,0 hPa 0,0 l/m 0 min 2 min 56 W/m 19,3 km/h (3 Bft) 100,00 %
07.11.2019 12:48 9,2 C 7,8 C 7,2 C 96 % 996,0 hPa 0,0 l/m 0 min 2 min 52 W/m 35,4 km/h (5 Bft) 100,00 %
07.11.2019 12:50 9,2 C 7,8 C 7,2 C 96 % 996,0 hPa 0,0 l/m 0 min 2 min 51 W/m 29,0 km/h (5 Bft) 100,00 %
07.11.2019 12:52 9,2 C 7,8 C 7,2 C 96 % 996,0 hPa 0,0 l/m 0 min 2 min 56 W/m 22,5 km/h (4 Bft) 100,00 %
07.11.2019 12:54 9,2 C 7,8 C 7,2 C 96 % 996,0 hPa 0,0 l/m 0 min 0 min 66 W/m 38,6 km/h (5 Bft) 97,87 %
07.11.2019 12:56 9,2 C 7,8 C 7,2 C 96 % 995,9 hPa 0,0 l/m 0 min 2 min 66 W/m 29,0 km/h (5 Bft) 100,00 %
07.11.2019 12:58 9,2 C 8,3 C 7,8 C 97 % 995,9 hPa 0,0 l/m 0 min 0 min 98 W/m 22,5 km/h (4 Bft) 100,00 %
07.11.2019 13:00 9,2 C 8,3 C 7,8 C 97 % 995,9 hPa 0,0 l/m 0 min 0 min 117 W/m 22,5 km/h (4 Bft) 97,83 %
07.11.2019 13:02 9,2 C 8,3 C 7,8 C 97 % 995,9 hPa 0,0 l/m 0 min 0 min 95 W/m 22,5 km/h (4 Bft) 97,87 %
07.11.2019 13:04 9,2 C 8,3 C 7,8 C 97 % 996,0 hPa 0,0 l/m 0 min 0 min 63 W/m 22,5 km/h (4 Bft) 100,00 %
07.11.2019 13:06 9,2 C 8,3 C 7,8 C 97 % 996,0 hPa 0,0 l/m 0 min 0 min 56 W/m 25,7 km/h (4 Bft) 97,87 %
07.11.2019 13:08 9,2 C 8,3 C 7,8 C 97 % 996,0 hPa 0,0 l/m 0 min 0 min 62 W/m 25,7 km/h (4 Bft) 95,74 %
07.11.2019 13:10 9,2 C 8,3 C 7,8 C 97 % 996,1 hPa 0,0 l/m 0 min 0 min 67 W/m 25,7 km/h (4 Bft) 95,74 %
07.11.2019 13:12 9,2 C 8,3 C 7,8 C 97 % 996,0 hPa 0,0 l/m 0 min 0 min 63 W/m 25,7 km/h (4 Bft) 97,83 %
07.11.2019 13:14 9,2 C 8,3 C 7,8 C 97 % 996,0 hPa 0,0 l/m 0 min 0 min 61 W/m 35,4 km/h (5 Bft) 95,74 %
07.11.2019 13:16 9,2 C 8,3 C 7,8 C 97 % 996,0 hPa 0,0 l/m 0 min 0 min 66 W/m 29,0 km/h (5 Bft) 93,62 %
07.11.2019 13:18 9,2 C 8,3 C 7,8 C 97 % 996,0 hPa 0,0 l/m 0 min 2 min 66 W/m 19,3 km/h (3 Bft) 95,74 %
07.11.2019 13:20 9,2 C 8,3 C 7,8 C 97 % 996,0 hPa 0,0 l/m 0 min 2 min 64 W/m 22,5 km/h (4 Bft) 95,74 %
07.11.2019 13:22 9,2 C 8,3 C 7,8 C 97 % 996,0 hPa 0,0 l/m 0 min 2 min 60 W/m 25,7 km/h (4 Bft) 95,74 %
07.11.2019 13:24 9,2 C 8,3 C 7,8 C 97 % 996,0 hPa 0,0 l/m 0 min 0 min 57 W/m 19,3 km/h (3 Bft) 95,65 %
07.11.2019 13:26 9,2 C 8,3 C 7,8 C 97 % 996,0 hPa 0,0 l/m 0 min 0 min 56 W/m 19,3 km/h (3 Bft) 95,74 %
07.11.2019 13:28 9,2 C 8,3 C 7,8 C 97 % 996,0 hPa 0,0 l/m 0 min 0 min 62 W/m 38,6 km/h (5 Bft) 93,62 %
07.11.2019 13:30 9,2 C 8,3 C 7,8 C 97 % 996,0 hPa 0,0 l/m 0 min 0 min 63 W/m 22,5 km/h (4 Bft) 95,74 %
07.11.2019 13:32 9,2 C 8,3 C 7,8 C 97 % 996,0 hPa 0,0 l/m 0 min 0 min 70 W/m 19,3 km/h (3 Bft) 93,62 %
07.11.2019 13:34 9,2 C 8,3 C 7,8 C 97 % 996,0 hPa 0,0 l/m 0 min 0 min 78 W/m 19,3 km/h (3 Bft) 93,62 %
07.11.2019 13:36 9,2 C 8,3 C 7,8 C 97 % 996,0 hPa 0,0 l/m 0 min 0 min 75 W/m 32,2 km/h (5 Bft) 95,65 %
07.11.2019 13:38 9,2 C 8,3 C 7,8 C 97 % 996,0 hPa 0,0 l/m 0 min 0 min 63 W/m 25,7 km/h (4 Bft) 95,74 %
07.11.2019 13:40 9,2 C 8,3 C 7,8 C 97 % 996,0 hPa 0,0 l/m 0 min 0 min 53 W/m 25,7 km/h (4 Bft) 95,74 %
07.11.2019 13:42 9,1 C 8,3 C 7,8 C 97 % 996,0 hPa 0,0 l/m 0 min 0 min 45 W/m 35,4 km/h (5 Bft) 95,74 %
07.11.2019 13:44 9,1 C 8,3 C 7,8 C 97 % 996,0 hPa 0,0 l/m 0 min 0 min 39 W/m 19,3 km/h (3 Bft) 95,74 %
07.11.2019 13:46 9,1 C 8,3 C 7,8 C 96 % 996,1 hPa 0,0 l/m 0 min 0 min 46 W/m 25,7 km/h (4 Bft) 93,48 %
07.11.2019 13:48 9,1 C 8,3 C 7,8 C 96 % 996,0 hPa 0,0 l/m 0 min 0 min 64 W/m 35,4 km/h (5 Bft) 95,74 %
07.11.2019 13:50 9,1 C 8,3 C 7,8 C 96 % 996,0 hPa 0,0 l/m 0 min 0 min 82 W/m 25,7 km/h (4 Bft) 97,87 %
07.11.2019 13:52 9,1 C 8,3 C 7,8 C 96 % 996,0 hPa 0,0 l/m 0 min 0 min 90 W/m 22,5 km/h (4 Bft) 97,87 %
07.11.2019 13:54 9,1 C 8,3 C 7,8 C 96 % 996,0 hPa 0,0 l/m 0 min 0 min 80 W/m 16,1 km/h (3 Bft) 93,62 %
07.11.2019 13:56 9,1 C 8,3 C 7,8 C 96 % 996,0 hPa 0,0 l/m 0 min 0 min 69 W/m 22,5 km/h (4 Bft) 53,33 %
07.11.2019 13:58 9,1 C 8,3 C 7,8 C 96 % 996,0 hPa 0,0 l/m 0 min 0 min 61 W/m 22,5 km/h (4 Bft) 97,83 %
07.11.2019 14:00 9,1 C 8,3 C 7,2 C 96 % 996,1 hPa 0,0 l/m 0 min 0 min 61 W/m 19,3 km/h (3 Bft) 97,87 %
07.11.2019 14:02 9,1 C 8,3 C 7,2 C 96 % 996,1 hPa 0,0 l/m 0 min 0 min 66 W/m 25,7 km/h (4 Bft) 95,74 %
07.11.2019 14:04 9,1 C 8,3 C 7,2 C 96 % 996,0 hPa 0,0 l/m 0 min 0 min 58 W/m 35,4 km/h (5 Bft) 95,74 %
07.11.2019 14:06 9,1 C 8,3 C 7,2 C 96 % 996,1 hPa 0,0 l/m 0 min 0 min 49 W/m 19,3 km/h (3 Bft) 95,74 %
07.11.2019 14:08 9,1 C 8,3 C 7,2 C 95 % 996,1 hPa 0,0 l/m 0 min 0 min 43 W/m 16,1 km/h (3 Bft) 100,00 %
07.11.2019 14:10 9,1 C 8,3 C 7,2 C 95 % 996,0 hPa 0,0 l/m 0 min 0 min 44 W/m 22,5 km/h (4 Bft) 100,00 %
07.11.2019 14:12 9,1 C 8,3 C 7,2 C 95 % 996,1 hPa 0,0 l/m 0 min 0 min 58 W/m 25,7 km/h (4 Bft) 97,87 %
07.11.2019 14:14 9,1 C 8,3 C 7,2 C 95 % 996,0 hPa 0,0 l/m 0 min 0 min 67 W/m 19,3 km/h (3 Bft) 100,00 %
07.11.2019 14:16 9,1 C 8,3 C 7,2 C 94 % 996,1 hPa 0,0 l/m 0 min 0 min 72 W/m 29,0 km/h (5 Bft) 100,00 %
07.11.2019 14:18 9,1 C 8,3 C 7,2 C 94 % 996,1 hPa 0,0 l/m 0 min 0 min 86 W/m 25,7 km/h (4 Bft) 100,00 %
07.11.2019 14:20 9,1 C 8,3 C 7,8 C 94 % 996,1 hPa 0,0 l/m 0 min 0 min 111 W/m 29,0 km/h (5 Bft) 100,00 %
07.11.2019 14:22 9,2 C 8,3 C 7,8 C 94 % 996,0 hPa 0,0 l/m 0 min 0 min 105 W/m 25,7 km/h (4 Bft) 97,83 %
07.11.2019 14:24 9,2 C 8,3 C 7,8 C 93 % 996,0 hPa 0,0 l/m 0 min 0 min 94 W/m 22,5 km/h (4 Bft) 100,00 %
07.11.2019 14:26 9,2 C 8,3 C 7,8 C 93 % 996,0 hPa 0,0 l/m 0 min 0 min 85 W/m 22,5 km/h (4 Bft) 97,87 %
07.11.2019 14:28 9,3 C 8,3 C 7,8 C 93 % 996,0 hPa 0,0 l/m 0 min 0 min 65 W/m 29,0 km/h (5 Bft) 100,00 %
07.11.2019 14:30 9,3 C 8,3 C 7,8 C 93 % 996,0 hPa 0,0 l/m 0 min 0 min 55 W/m 25,7 km/h (4 Bft) 100,00 %
07.11.2019 14:32 9,3 C 8,3 C 7,8 C 93 % 996,0 hPa 0,0 l/m 0 min 0 min 52 W/m 29,0 km/h (5 Bft) 100,00 %
07.11.2019 14:34 9,4 C 8,3 C 7,8 C 92 % 996,0 hPa 0,0 l/m 0 min 0 min 50 W/m 22,5 km/h (4 Bft) 97,87 %
07.11.2019 14:36 9,4 C 8,3 C 7,8 C 92 % 996,1 hPa 0,0 l/m 0 min 0 min 63 W/m 25,7 km/h (4 Bft) 100,00 %
07.11.2019 14:38 9,4 C 8,3 C 7,8 C 92 % 996,0 hPa 0,0 l/m 0 min 2 min 77 W/m 25,7 km/h (4 Bft) 100,00 %
07.11.2019 14:40 9,5 C 8,3 C 7,8 C 92 % 996,0 hPa 0,0 l/m 0 min 2 min 65 W/m 25,7 km/h (4 Bft) 97,87 %
07.11.2019 14:42 9,5 C 8,3 C 7,8 C 92 % 996,0 hPa 0,0 l/m 0 min 2 min 40 W/m 22,5 km/h (4 Bft) 100,00 %
07.11.2019 14:44 9,5 C 8,3 C 7,8 C 92 % 995,9 hPa 0,0 l/m 0 min 0 min 45 W/m 25,7 km/h (4 Bft) 97,83 %
07.11.2019 14:46 9,5 C 8,3 C 7,8 C 92 % 996,0 hPa 0,0 l/m 0 min 2 min 73 W/m 29,0 km/h (5 Bft) 97,87 %
07.11.2019 14:48 9,6 C 8,3 C 7,8 C 92 % 996,0 hPa 0,0 l/m 0 min 0 min 77 W/m 25,7 km/h (4 Bft) 97,87 %
07.11.2019 14:53 9,6 C 8,3 C 8,3 C 91 % 996,1 hPa 0,0 l/m 0 min 5 min 61 W/m 22,5 km/h (4 Bft) 98,51 %
07.11.2019 14:54 9,6 C 8,3 C 8,3 C 91 % 996,1 hPa 0,0 l/m 0 min 0 min 34 W/m 12,9 km/h (3 Bft) 100,00 %
07.11.2019 14:56 9,6 C 8,3 C 8,3 C 91 % 996,1 hPa 0,0 l/m 0 min 0 min 25 W/m 12,9 km/h (3 Bft) 100,00 %
07.11.2019 14:58 9,7 C 8,3 C 8,3 C 91 % 996,1 hPa 0,0 l/m 0 min 0 min 19 W/m 16,1 km/h (3 Bft) 100,00 %
07.11.2019 15:00 9,7 C 8,3 C 8,3 C 91 % 996,2 hPa 0,0 l/m 0 min 0 min 16 W/m 19,3 km/h (3 Bft) 100,00 %
07.11.2019 15:02 9,7 C 8,3 C 8,3 C 91 % 996,2 hPa 0,0 l/m 0 min 0 min 19 W/m 25,7 km/h (4 Bft) 97,87 %
07.11.2019 15:04 9,7 C 8,3 C 8,3 C 91 % 996,3 hPa 0,0 l/m 0 min 0 min 22 W/m 22,5 km/h (4 Bft) 100,00 %
07.11.2019 15:06 9,7 C 8,3 C 8,3 C 91 % 996,3 hPa 0,0 l/m 0 min 0 min 31 W/m 19,3 km/h (3 Bft) 97,87 %
07.11.2019 15:08 9,7 C 8,3 C 8,3 C 91 % 996,5 hPa 0,0 l/m 0 min 0 min 33 W/m 29,0 km/h (5 Bft) 97,83 %
07.11.2019 15:10 9,7 C 8,3 C 8,3 C 91 % 996,5 hPa 0,0 l/m 0 min 0 min 26 W/m 25,7 km/h (4 Bft) 97,87 %
07.11.2019 15:12 9,7 C 8,3 C 8,3 C 91 % 996,6 hPa 0,0 l/m 0 min 0 min 26 W/m 16,1 km/h (3 Bft) 97,87 %
07.11.2019 15:14 9,7 C 8,3 C 8,3 C 91 % 996,6 hPa 0,0 l/m 0 min 0 min 30 W/m 22,5 km/h (4 Bft) 97,87 %
07.11.2019 15:16 9,7 C 8,9 C 8,9 C 91 % 996,6 hPa 0,0 l/m 0 min 0 min 36 W/m 35,4 km/h (5 Bft) 97,87 %
07.11.2019 15:18 9,8 C 8,9 C 8,9 C 91 % 996,7 hPa 0,0 l/m 0 min 0 min 41 W/m 29,0 km/h (5 Bft) 97,87 %
07.11.2019 15:20 9,8 C 8,9 C 8,9 C 91 % 996,7 hPa 0,0 l/m 0 min 0 min 53 W/m 22,5 km/h (4 Bft) 97,83 %
07.11.2019 15:22 9,8 C 8,9 C 8,9 C 91 % 996,7 hPa 0,0 l/m 0 min 0 min 62 W/m 25,7 km/h (4 Bft) 97,87 %
07.11.2019 15:24 9,8 C 8,9 C 8,9 C 91 % 996,7 hPa 0,0 l/m 0 min 0 min 71 W/m 25,7 km/h (4 Bft) 97,87 %
07.11.2019 15:26 9,8 C 9,4 C 8,9 C 91 % 996,7 hPa 0,0 l/m 0 min 0 min 94 W/m 25,7 km/h (4 Bft) 95,74 %
07.11.2019 15:28 9,9 C 10,0 C 9,4 C 91 % 996,7 hPa 0,0 l/m 2 min 0 min 148 W/m 32,2 km/h (5 Bft) 97,87 %
07.11.2019 15:30 9,9 C 10,6 C 9,4 C 91 % 996,7 hPa 0,0 l/m 2 min 0 min 157 W/m 19,3 km/h (3 Bft) 97,87 %
07.11.2019 15:32 10,0 C 10,6 C 9,4 C 90 % 996,8 hPa 0,0 l/m 2 min 0 min 126 W/m 29,0 km/h (5 Bft) 100,00 %
07.11.2019 15:34 10,1 C 10,6 C 9,4 C 90 % 996,8 hPa 0,0 l/m 2 min 0 min 90 W/m 32,2 km/h (5 Bft) 97,87 %
07.11.2019 15:36 10,1 C 10,0 C 9,4 C 90 % 996,8 hPa 0,0 l/m 0 min 0 min 57 W/m 25,7 km/h (4 Bft) 91,49 %
07.11.2019 15:38 10,1 C 10,0 C 8,9 C 89 % 996,8 hPa 0,0 l/m 0 min 0 min 51 W/m 19,3 km/h (3 Bft) 95,74 %
07.11.2019 15:40 10,1 C 10,0 C 8,9 C 89 % 996,9 hPa 0,0 l/m 0 min 0 min 49 W/m 32,2 km/h (5 Bft) 95,74 %
07.11.2019 15:42 10,1 C 10,0 C 8,9 C 88 % 996,8 hPa 0,0 l/m 0 min 0 min 48 W/m 29,0 km/h (5 Bft) 95,65 %
07.11.2019 15:44 10,1 C 10,0 C 8,9 C 87 % 996,9 hPa 0,0 l/m 0 min 0 min 47 W/m 35,4 km/h (5 Bft) 95,74 %
07.11.2019 15:46 10,1 C 10,0 C 8,9 C 86 % 996,9 hPa 0,0 l/m 0 min 0 min 46 W/m 16,1 km/h (3 Bft) 97,87 %
07.11.2019 15:48 10,1 C 9,4 C 8,9 C 86 % 997,0 hPa 0,0 l/m 0 min 0 min 44 W/m 25,7 km/h (4 Bft) 95,74 %
07.11.2019 15:50 10,1 C 9,4 C 8,9 C 86 % 997,0 hPa 0,0 l/m 0 min 0 min 42 W/m 22,5 km/h (4 Bft) 93,62 %
07.11.2019 15:52 10,1 C 9,4 C 8,9 C 86 % 997,1 hPa 0,0 l/m 0 min 0 min 41 W/m 16,1 km/h (3 Bft) 91,49 %
07.11.2019 15:54 10,1 C 9,4 C 8,9 C 85 % 997,1 hPa 0,0 l/m 0 min 0 min 39 W/m 16,1 km/h (3 Bft) 95,65 %
07.11.2019 15:56 10,1 C 9,4 C 8,3 C 85 % 997,2 hPa 0,0 l/m 0 min 0 min 37 W/m 16,1 km/h (3 Bft) 97,87 %
07.11.2019 15:58 10,1 C 9,4 C 8,3 C 85 % 997,3 hPa 0,0 l/m 0 min 0 min 30 W/m 12,9 km/h (3 Bft) 97,87 %
07.11.2019 16:00 10,1 C 9,4 C 8,3 C 85 % 997,4 hPa 0,0 l/m 0 min 0 min 27 W/m 12,9 km/h (3 Bft) 97,87 %
07.11.2019 16:02 10,1 C 8,9 C 8,3 C 85 % 997,4 hPa 0,0 l/m 0 min 0 min 26 W/m 19,3 km/h (3 Bft) 95,74 %
07.11.2019 16:04 10,0 C 8,9 C 8,3 C 85 % 997,5 hPa 0,0 l/m 0 min 0 min 25 W/m 12,9 km/h (3 Bft) 95,74 %
07.11.2019 16:06 9,9 C 8,9 C 8,3 C 85 % 997,6 hPa 0,0 l/m 0 min 0 min 26 W/m 19,3 km/h (3 Bft) 97,83 %
07.11.2019 16:08 9,9 C 8,9 C 8,3 C 85 % 997,7 hPa 0,0 l/m 0 min 0 min 25 W/m 16,1 km/h (3 Bft) 95,74 %
07.11.2019 16:10 9,9 C 8,9 C 8,3 C 85 % 997,7 hPa 0,0 l/m 0 min 0 min 24 W/m 16,1 km/h (3 Bft) 95,74 %
07.11.2019 16:12 9,9 C 9,4 C 8,3 C 85 % 997,7 hPa 0,0 l/m 0 min 0 min 37 W/m 22,5 km/h (4 Bft) 95,74 %
07.11.2019 16:14 9,9 C 9,4 C 8,3 C 85 % 997,8 hPa 0,0 l/m 0 min 0 min 43 W/m 22,5 km/h (4 Bft) 95,74 %
07.11.2019 16:16 9,9 C 8,9 C 8,3 C 86 % 997,8 hPa 0,0 l/m 0 min 0 min 27 W/m 16,1 km/h (3 Bft) 95,74 %
07.11.2019 16:18 9,8 C 8,9 C 8,3 C 86 % 997,8 hPa 0,0 l/m 0 min 0 min 19 W/m 16,1 km/h (3 Bft) 95,65 %
07.11.2019 16:20 9,8 C 8,9 C 8,3 C 86 % 997,7 hPa 0,0 l/m 0 min 0 min 17 W/m 6,4 km/h (2 Bft) 97,87 %
07.11.2019 16:22 9,8 C 8,9 C 8,3 C 86 % 997,7 hPa 0,0 l/m 0 min 0 min 15 W/m 16,1 km/h (3 Bft) 95,74 %
07.11.2019 16:24 9,8 C 8,9 C 8,3 C 86 % 997,8 hPa 0,0 l/m 0 min 0 min 13 W/m 12,9 km/h (3 Bft) 97,87 %
07.11.2019 16:26 9,8 C 8,9 C 8,3 C 86 % 997,7 hPa 0,0 l/m 0 min 0 min 12 W/m 19,3 km/h (3 Bft) 95,74 %
07.11.2019 16:28 9,7 C 8,9 C 8,3 C 86 % 997,8 hPa 0,0 l/m 0 min 0 min 14 W/m 19,3 km/h (3 Bft) 97,87 %
07.11.2019 16:30 9,7 C 8,9 C 8,3 C 86 % 997,9 hPa 0,0 l/m 0 min 0 min 12 W/m 12,9 km/h (3 Bft) 97,83 %
07.11.2019 16:32 9,7 C 8,9 C 8,3 C 86 % 997,9 hPa 0,0 l/m 0 min 0 min 11 W/m 12,9 km/h (3 Bft) 97,87 %
07.11.2019 16:34 9,7 C 8,9 C 8,3 C 86 % 997,9 hPa 0,0 l/m 0 min 0 min 10 W/m 12,9 km/h (3 Bft) 97,87 %
07.11.2019 16:36 9,7 C 8,9 C 7,8 C 86 % 998,0 hPa 0,0 l/m 0 min 0 min 7 W/m 12,9 km/h (3 Bft) 95,74 %
07.11.2019 16:38 9,6 C 8,9 C 8,3 C 86 % 998,0 hPa 0,0 l/m 0 min 0 min 5 W/m 12,9 km/h (3 Bft) 97,87 %
07.11.2019 16:40 9,6 C 8,3 C 8,3 C 86 % 998,1 hPa 0,0 l/m 0 min 2 min 0 W/m 16,1 km/h (3 Bft) 97,87 %
07.11.2019 16:42 9,6 C 8,3 C 7,8 C 86 % 998,1 hPa 0,0 l/m 0 min 2 min 2 W/m 19,3 km/h (3 Bft) 97,83 %
07.11.2019 16:44 9,6 C 7,8 C 7,8 C 86 % 998,2 hPa 0,0 l/m 0 min 2 min 5 W/m 16,1 km/h (3 Bft) 97,87 %
07.11.2019 16:46 9,6 C 7,8 C 7,2 C 86 % 998,2 hPa 0,0 l/m 0 min 2 min 5 W/m 16,1 km/h (3 Bft) 97,87 %
07.11.2019 16:48 9,6 C 7,2 C 7,2 C 87 % 998,2 hPa 0,0 l/m 0 min 2 min 5 W/m 16,1 km/h (3 Bft) 97,87 %
07.11.2019 16:50 9,6 C 7,8 C 7,2 C 87 % 998,3 hPa 0,0 l/m 0 min 0 min 2 W/m 16,1 km/h (3 Bft) 97,87 %
07.11.2019 16:52 9,6 C 7,8 C 7,2 C 87 % 998,3 hPa 0,0 l/m 0 min 0 min 0 W/m 12,9 km/h (3 Bft) 97,83 %
07.11.2019 16:54 9,6 C 7,8 C 7,2 C 87 % 998,4 hPa 0,0 l/m 0 min 0 min 0 W/m 22,5 km/h (4 Bft) 100,00 %
07.11.2019 16:56 9,5 C 7,8 C 7,8 C 87 % 998,4 hPa 0,0 l/m 0 min 0 min 0 W/m 16,1 km/h (3 Bft) 100,00 %
07.11.2019 16:58 9,5 C 7,2 C 6,7 C 87 % 998,7 hPa 0,2 l/m 0 min 2 min 0 W/m 22,5 km/h (4 Bft) 100,00 %
07.11.2019 17:00 9,4 C 6,7 C 6,7 C 88 % 998,9 hPa 0,0 l/m 0 min 2 min 0 W/m 45,1 km/h (6 Bft) 100,00 %
07.11.2019 17:02 9,3 C 6,7 C 6,1 C 88 % 999,0 hPa 0,2 l/m 0 min 2 min 0 W/m 35,4 km/h (5 Bft) 100,00 %
07.11.2019 17:04 9,2 C 6,7 C 6,1 C 88 % 999,0 hPa 0,0 l/m 0 min 2 min 0 W/m 25,7 km/h (4 Bft) 100,00 %
07.11.2019 17:06 9,1 C 6,1 C 6,1 C 89 % 998,9 hPa 0,0 l/m 0 min 2 min 0 W/m 22,5 km/h (4 Bft) 100,00 %
07.11.2019 17:08 9,0 C 6,1 C 6,1 C 89 % 998,8 hPa 0,0 l/m 0 min 2 min 0 W/m 25,7 km/h (4 Bft) 100,00 %
07.11.2019 17:10 8,9 C 6,1 C 6,1 C 89 % 998,8 hPa 0,0 l/m 0 min 2 min 0 W/m 25,7 km/h (4 Bft) 100,00 %
07.11.2019 17:12 8,8 C 6,1 C 6,1 C 89 % 998,8 hPa 0,0 l/m 0 min 2 min 0 W/m 16,1 km/h (3 Bft) 100,00 %
07.11.2019 17:14 8,7 C 6,1 C 6,1 C 89 % 998,8 hPa 0,0 l/m 0 min 2 min 0 W/m 22,5 km/h (4 Bft) 100,00 %
07.11.2019 17:16 8,6 C 6,1 C 5,6 C 89 % 998,8 hPa 0,0 l/m 0 min 2 min 0 W/m 16,1 km/h (3 Bft) 100,00 %
07.11.2019 17:18 8,5 C 6,1 C 5,6 C 89 % 998,8 hPa 0,0 l/m 0 min 2 min 0 W/m 19,3 km/h (3 Bft) 100,00 %
07.11.2019 17:20 8,4 C 6,1 C 5,6 C 89 % 998,9 hPa 0,0 l/m 0 min 2 min 0 W/m 22,5 km/h (4 Bft) 100,00 %
07.11.2019 17:22 8,3 C 6,1 C 5,6 C 89 % 999,0 hPa 0,0 l/m 0 min 2 min 0 W/m 25,7 km/h (4 Bft) 100,00 %
07.11.2019 17:24 8,3 C 6,1 C 5,6 C 89 % 999,0 hPa 0,0 l/m 0 min 2 min 0 W/m 25,7 km/h (4 Bft) 100,00 %
07.11.2019 17:26 8,2 C 6,1 C 5,6 C 90 % 999,1 hPa 0,0 l/m 0 min 0 min 0 W/m 25,7 km/h (4 Bft) 100,00 %
07.11.2019 17:28 8,1 C 6,1 C 5,6 C 90 % 999,1 hPa 0,0 l/m 0 min 0 min 0 W/m 19,3 km/h (3 Bft) 100,00 %
07.11.2019 17:30 8,0 C 5,6 C 5,6 C 90 % 999,2 hPa 0,0 l/m 0 min 0 min 0 W/m 19,3 km/h (3 Bft) 100,00 %
07.11.2019 17:32 8,0 C 5,6 C 5,6 C 90 % 999,3 hPa 0,0 l/m 0 min 0 min 0 W/m 16,1 km/h (3 Bft) 100,00 %
07.11.2019 17:34 7,9 C 5,6 C 5,6 C 90 % 999,3 hPa 0,0 l/m 0 min 0 min 0 W/m 19,3 km/h (3 Bft) 100,00 %
07.11.2019 17:36 7,8 C 5,6 C 5,6 C 90 % 999,3 hPa 0,0 l/m 0 min 0 min 0 W/m 22,5 km/h (4 Bft) 100,00 %
07.11.2019 17:38 7,8 C 5,6 C 5,6 C 90 % 999,3 hPa 0,0 l/m 0 min 0 min 0 W/m 16,1 km/h (3 Bft) 100,00 %
07.11.2019 17:40 7,7 C 5,6 C 5,0 C 90 % 999,4 hPa 0,0 l/m 0 min 0 min 0 W/m 25,7 km/h (4 Bft) 100,00 %
07.11.2019 17:42 7,6 C 5,6 C 5,0 C 90 % 999,5 hPa 0,0 l/m 0 min 0 min 0 W/m 22,5 km/h (4 Bft) 100,00 %
07.11.2019 17:44 7,6 C 5,6 C 5,0 C 91 % 999,5 hPa 0,0 l/m 0 min 0 min 0 W/m 19,3 km/h (3 Bft) 100,00 %
07.11.2019 17:46 7,5 C 5,6 C 5,0 C 91 % 999,6 hPa 0,0 l/m 0 min 0 min 0 W/m 16,1 km/h (3 Bft) 97,87 %
07.11.2019 17:48 7,4 C 5,6 C 5,0 C 91 % 999,6 hPa 0,0 l/m 0 min 0 min 0 W/m 22,5 km/h (4 Bft) 100,00 %
07.11.2019 17:50 7,4 C 5,6 C 5,0 C 91 % 999,7 hPa 0,0 l/m 0 min 0 min 0 W/m 19,3 km/h (3 Bft) 100,00 %
07.11.2019 17:52 7,4 C 5,6 C 5,0 C 91 % 999,7 hPa 0,0 l/m 0 min 0 min 0 W/m 22,5 km/h (4 Bft) 100,00 %
07.11.2019 17:54 7,3 C 5,6 C 5,0 C 91 % 999,8 hPa 0,0 l/m 0 min 0 min 0 W/m 19,3 km/h (3 Bft) 100,00 %
07.11.2019 17:56 7,3 C 5,6 C 5,0 C 91 % 999,8 hPa 0,0 l/m 0 min 0 min 0 W/m 19,3 km/h (3 Bft) 100,00 %
07.11.2019 17:58 7,2 C 5,6 C 5,0 C 91 % 999,8 hPa 0,0 l/m 0 min 0 min 0 W/m 16,1 km/h (3 Bft) 100,00 %
07.11.2019 18:00 7,2 C 5,6 C 5,0 C 91 % 999,9 hPa 0,0 l/m 0 min 0 min 0 W/m 25,7 km/h (4 Bft) 97,87 %
07.11.2019 18:02 7,2 C 5,6 C 5,0 C 92 % 999,9 hPa 0,0 l/m 0 min 0 min 0 W/m 19,3 km/h (3 Bft) 100,00 %
07.11.2019 18:04 7,2 C 5,6 C 5,0 C 92 % 1000,0 hPa 0,0 l/m 0 min 0 min 0 W/m 19,3 km/h (3 Bft) 100,00 %
07.11.2019 18:08 7,1 C 5,6 C 5,0 C 92 % 1000,0 hPa 0,0 l/m 0 min 0 min 0 W/m 19,3 km/h (3 Bft) 100,00 %
07.11.2019 18:10 7,1 C 5,6 C 5,0 C 92 % 1000,1 hPa 0,0 l/m 0 min 0 min 0 W/m 9,7 km/h (2 Bft) 95,74 %
07.11.2019 18:12 7,1 C 5,6 C 5,0 C 92 % 1000,1 hPa 0,0 l/m 0 min 0 min 0 W/m 16,1 km/h (3 Bft) 100,00 %
07.11.2019 18:14 7,0 C 5,6 C 5,0 C 92 % 1000,1 hPa 0,0 l/m 0 min 0 min 0 W/m 16,1 km/h (3 Bft) 97,83 %
07.11.2019 18:16 7,0 C 5,6 C 5,0 C 92 % 1000,2 hPa 0,0 l/m 0 min 0 min 0 W/m 22,5 km/h (4 Bft) 100,00 %
07.11.2019 18:18 6,9 C 5,6 C 5,0 C 92 % 1000,2 hPa 0,0 l/m 0 min 0 min 0 W/m 19,3 km/h (3 Bft) 100,00 %
07.11.2019 18:20 6,9 C 5,6 C 5,0 C 92 % 1000,2 hPa 0,0 l/m 0 min 0 min 0 W/m 16,1 km/h (3 Bft) 97,87 %
07.11.2019 18:22 6,9 C 5,6 C 5,0 C 93 % 1000,2 hPa 0,0 l/m 0 min 0 min 0 W/m 16,1 km/h (3 Bft) 93,62 %
07.11.2019 18:24 6,9 C 5,6 C 5,0 C 93 % 1000,2 hPa 0,0 l/m 0 min 0 min 0 W/m 22,5 km/h (4 Bft) 93,62 %
07.11.2019 18:26 6,9 C 5,6 C 5,0 C 93 % 1000,3 hPa 0,0 l/m 0 min 0 min 0 W/m 16,1 km/h (3 Bft) 93,48 %
07.11.2019 18:28 6,8 C 5,6 C 5,0 C 93 % 1000,3 hPa 0,0 l/m 0 min 0 min 0 W/m 22,5 km/h (4 Bft) 95,74 %
07.11.2019 18:30 6,8 C 5,6 C 5,0 C 93 % 1000,4 hPa 0,0 l/m 0 min 0 min 0 W/m 16,1 km/h (3 Bft) 95,74 %
07.11.2019 18:32 6,8 C 5,6 C 5,0 C 93 % 1000,4 hPa 0,0 l/m 0 min 0 min 0 W/m 19,3 km/h (3 Bft) 95,74 %
07.11.2019 18:34 6,8 C 5,6 C 5,0 C 93 % 1000,5 hPa 0,0 l/m 0 min 0 min 0 W/m 22,5 km/h (4 Bft) 95,74 %
07.11.2019 18:36 6,8 C 5,6 C 5,0 C 93 % 1000,5 hPa 0,0 l/m 0 min 0 min 0 W/m 19,3 km/h (3 Bft) 95,65 %
07.11.2019 18:38 6,8 C 5,6 C 5,0 C 93 % 1000,5 hPa 0,0 l/m 0 min 0 min 0 W/m 16,1 km/h (3 Bft) 95,74 %
07.11.2019 18:40 6,8 C 5,6 C 5,0 C 93 % 1000,5 hPa 0,0 l/m 0 min 0 min 0 W/m 16,1 km/h (3 Bft) 91,49 %
07.11.2019 18:42 6,8 C 5,6 C 5,0 C 93 % 1000,6 hPa 0,0 l/m 0 min 0 min 0 W/m 12,9 km/h (3 Bft) 93,62 %
07.11.2019 18:44 6,8 C 5,6 C 5,0 C 93 % 1000,6 hPa 0,0 l/m 0 min 0 min 0 W/m 6,4 km/h (2 Bft) 89,47 %
07.11.2019 18:46 6,7 C 5,0 C 5,0 C 93 % 1000,7 hPa 0,0 l/m 0 min 0 min 0 W/m 6,4 km/h (2 Bft) 91,84 %
07.11.2019 18:48 6,7 C 5,0 C 5,0 C 93 % 1000,7 hPa 0,0 l/m 0 min 0 min 0 W/m 12,9 km/h (3 Bft) 93,62 %
07.11.2019 18:50 6,7 C 5,0 C 5,0 C 93 % 1000,7 hPa 0,0 l/m 0 min 0 min 0 W/m 16,1 km/h (3 Bft) 94,34 %
07.11.2019 18:52 6,7 C 5,6 C 5,0 C 93 % 1000,7 hPa 0,0 l/m 0 min 0 min 0 W/m 19,3 km/h (3 Bft) 92,11 %
07.11.2019 18:54 6,7 C 5,6 C 5,0 C 93 % 1000,7 hPa 0,0 l/m 0 min 0 min 0 W/m 12,9 km/h (3 Bft) 94,00 %
07.11.2019 18:56 6,6 C 5,6 C 5,0 C 94 % 1000,7 hPa 0,0 l/m 0 min 0 min 0 W/m 12,9 km/h (3 Bft) 93,62 %
07.11.2019 18:58 6,6 C 5,0 C 5,0 C 93 % 1000,7 hPa 0,0 l/m 0 min 0 min 0 W/m 16,1 km/h (3 Bft) 94,34 %
07.11.2019 19:00 6,6 C 5,0 C 5,0 C 93 % 1000,8 hPa 0,0 l/m 0 min 0 min 0 W/m 12,9 km/h (3 Bft) 94,74 %
07.11.2019 19:02 6,6 C 5,6 C 5,0 C 93 % 1000,8 hPa 0,0 l/m 0 min 0 min 0 W/m 16,1 km/h (3 Bft) 93,88 %
07.11.2019 19:04 6,6 C 5,6 C 5,0 C 94 % 1000,8 hPa 0,0 l/m 0 min 0 min 0 W/m 16,1 km/h (3 Bft) 91,49 %
07.11.2019 19:06 6,6 C 5,6 C 5,0 C 94 % 1000,8 hPa 0,0 l/m 0 min 0 min 0 W/m 16,1 km/h (3 Bft) 92,45 %
07.11.2019 19:08 6,6 C 5,6 C 5,0 C 94 % 1000,9 hPa 0,0 l/m 0 min 0 min 0 W/m 12,9 km/h (3 Bft) 94,74 %
07.11.2019 19:10 6,6 C 5,0 C 5,0 C 94 % 1000,9 hPa 0,0 l/m 0 min 0 min 0 W/m 12,9 km/h (3 Bft) 100,00 %
07.11.2019 19:12 6,5 C 5,6 C 5,0 C 94 % 1000,9 hPa 0,0 l/m 0 min 0 min 0 W/m 12,9 km/h (3 Bft) 94,12 %
07.11.2019 19:14 6,5 C 5,6 C 5,0 C 94 % 1000,9 hPa 0,0 l/m 0 min 0 min 0 W/m 16,1 km/h (3 Bft) 100,00 %
07.11.2019 19:16 6,5 C 5,6 C 5,0 C 94 % 1001,0 hPa 0,0 l/m 0 min 0 min 0 W/m 16,1 km/h (3 Bft) 100,00 %
07.11.2019 19:18 6,5 C 5,6 C 5,0 C 94 % 1001,0 hPa 0,0 l/m 0 min 0 min 0 W/m 22,5 km/h (4 Bft) 94,74 %
07.11.2019 19:20 6,5 C 5,6 C 5,0 C 94 % 1001,0 hPa 0,0 l/m 0 min 0 min 0 W/m 12,9 km/h (3 Bft) 97,96 %
07.11.2019 19:22 6,5 C 5,6 C 5,0 C 94 % 1001,1 hPa 0,0 l/m 0 min 0 min 0 W/m 19,3 km/h (3 Bft) 97,87 %
07.11.2019 19:24 6,5 C 5,6 C 5,0 C 94 % 1001,1 hPa 0,0 l/m 0 min 0 min 0 W/m 16,1 km/h (3 Bft) 95,74 %
07.11.2019 19:26 6,5 C 5,6 C 5,0 C 94 % 1001,0 hPa 0,0 l/m 0 min 0 min 0 W/m 22,5 km/h (4 Bft) 98,11 %
07.11.2019 19:28 6,6 C 5,6 C 5,0 C 94 % 1001,1 hPa 0,0 l/m 0 min 0 min 0 W/m 16,1 km/h (3 Bft) 100,00 %
07.11.2019 19:30 6,5 C 5,6 C 5,0 C 94 % 1001,1 hPa 0,0 l/m 0 min 0 min 0 W/m 12,9 km/h (3 Bft) 100,00 %
07.11.2019 19:32 6,6 C 5,6 C 5,0 C 94 % 1001,1 hPa 0,0 l/m 0 min 0 min 0 W/m 16,1 km/h (3 Bft) 97,87 %
07.11.2019 19:34 6,5 C 5,6 C 5,0 C 94 % 1001,2 hPa 0,0 l/m 0 min 0 min 0 W/m 12,9 km/h (3 Bft) 100,00 %
07.11.2019 19:36 6,5 C 5,6 C 5,0 C 94 % 1001,2 hPa 0,0 l/m 0 min 0 min 0 W/m 19,3 km/h (3 Bft) 97,83 %
07.11.2019 19:38 6,5 C 5,6 C 5,0 C 94 % 1001,2 hPa 0,0 l/m 0 min 0 min 0 W/m 19,3 km/h (3 Bft) 100,00 %
07.11.2019 19:40 6,5 C 5,6 C 5,0 C 94 % 1001,3 hPa 0,0 l/m 0 min 0 min 0 W/m 16,1 km/h (3 Bft) 100,00 %
07.11.2019 19:42 6,5 C 5,6 C 5,0 C 94 % 1001,3 hPa 0,0 l/m 0 min 0 min 0 W/m 16,1 km/h (3 Bft) 97,87 %
07.11.2019 19:44 6,5 C 5,6 C 5,0 C 94 % 1001,3 hPa 0,0 l/m 0 min 0 min 0 W/m 25,7 km/h (4 Bft) 100,00 %
07.11.2019 19:46 6,5 C 6,1 C 5,0 C 94 % 1001,3 hPa 0,0 l/m 0 min 0 min 0 W/m 19,3 km/h (3 Bft) 100,00 %
07.11.2019 19:48 6,5 C 6,1 C 5,0 C 94 % 1001,4 hPa 0,0 l/m 0 min 0 min 0 W/m 22,5 km/h (4 Bft) 100,00 %
07.11.2019 19:50 6,5 C 6,1 C 5,0 C 95 % 1001,4 hPa 0,0 l/m 0 min 0 min 0 W/m 19,3 km/h (3 Bft) 100,00 %
07.11.2019 19:52 6,5 C 6,1 C 5,0 C 95 % 1001,4 hPa 0,0 l/m 0 min 0 min 0 W/m 22,5 km/h (4 Bft) 100,00 %
07.11.2019 19:53 6,5 C 6,1 C 5,0 C 95 % 1001,3 hPa 0,0 l/m 0 min 0 min 0 W/m 22,5 km/h (4 Bft) 98,11 %
07.11.2019 19:56 6,5 C 5,6 C 5,0 C 94 % 1001,4 hPa 0,0 l/m 0 min 0 min 0 W/m 12,9 km/h (3 Bft) 100,00 %
07.11.2019 19:58 6,5 C 5,6 C 5,0 C 94 % 1001,4 hPa 0,0 l/m 0 min 0 min 0 W/m 16,1 km/h (3 Bft) 100,00 %
07.11.2019 20:00 6,5 C 6,1 C 5,0 C 94 % 1001,4 hPa 0,0 l/m 0 min 0 min 0 W/m 19,3 km/h (3 Bft) 100,00 %
07.11.2019 20:02 6,5 C 6,1 C 5,0 C 94 % 1001,4 hPa 0,0 l/m 0 min 0 min 0 W/m 16,1 km/h (3 Bft) 97,87 %
07.11.2019 20:04 6,5 C 6,1 C 5,0 C 94 % 1001,4 hPa 0,0 l/m 0 min 0 min 0 W/m 16,1 km/h (3 Bft) 97,87 %
07.11.2019 20:06 6,5 C 6,1 C 5,0 C 94 % 1001,5 hPa 0,0 l/m 0 min 0 min 0 W/m 16,1 km/h (3 Bft) 100,00 %
07.11.2019 20:08 6,5 C 6,1 C 5,0 C 94 % 1001,5 hPa 0,0 l/m 0 min 0 min 0 W/m 19,3 km/h (3 Bft) 100,00 %
07.11.2019 20:10 6,5 C 6,1 C 5,0 C 94 % 1001,6 hPa 0,0 l/m 0 min 0 min 0 W/m 12,9 km/h (3 Bft) 100,00 %
07.11.2019 20:12 6,5 C 6,1 C 5,0 C 94 % 1001,6 hPa 0,0 l/m 0 min 0 min 0 W/m 19,3 km/h (3 Bft) 100,00 %
07.11.2019 20:14 6,5 C 6,1 C 5,0 C 94 % 1001,6 hPa 0,0 l/m 0 min 0 min 0 W/m 16,1 km/h (3 Bft) 100,00 %
07.11.2019 20:16 6,5 C 5,6 C 4,4 C 94 % 1001,6 hPa 0,0 l/m 0 min 0 min 0 W/m 16,1 km/h (3 Bft) 97,87 %
07.11.2019 20:18 6,5 C 5,6 C 4,4 C 94 % 1001,6 hPa 0,0 l/m 0 min 0 min 0 W/m 6,4 km/h (2 Bft) 100,00 %
07.11.2019 20:20 6,5 C 5,6 C 4,4 C 94 % 1001,6 hPa 0,0 l/m 0 min 0 min 0 W/m 19,3 km/h (3 Bft) 100,00 %
07.11.2019 20:22 6,4 C 5,6 C 4,4 C 94 % 1001,6 hPa 0,0 l/m 0 min 0 min 0 W/m 16,1 km/h (3 Bft) 100,00 %
07.11.2019 20:24 6,4 C 5,6 C 4,4 C 94 % 1001,7 hPa 0,0 l/m 0 min 0 min 0 W/m 16,1 km/h (3 Bft) 97,87 %
07.11.2019 20:26 6,4 C 5,6 C 4,4 C 94 % 1001,7 hPa 0,0 l/m 0 min 0 min 0 W/m 19,3 km/h (3 Bft) 100,00 %
07.11.2019 20:28 6,4 C 5,6 C 4,4 C 94 % 1001,7 hPa 0,0 l/m 0 min 0 min 0 W/m 12,9 km/h (3 Bft) 100,00 %
07.11.2019 20:30 6,4 C 5,6 C 4,4 C 94 % 1001,8 hPa 0,0 l/m 0 min 0 min 0 W/m 16,1 km/h (3 Bft) 100,00 %
07.11.2019 20:32 6,4 C 5,6 C 4,4 C 94 % 1001,9 hPa 0,0 l/m 0 min 0 min 0 W/m 16,1 km/h (3 Bft) 100,00 %
07.11.2019 20:34 6,4 C 5,6 C 4,4 C 94 % 1001,9 hPa 0,0 l/m 0 min 0 min 0 W/m 12,9 km/h (3 Bft) 100,00 %
07.11.2019 20:36 6,4 C 5,6 C 4,4 C 94 % 1001,9 hPa 0,0 l/m 0 min 0 min 0 W/m 12,9 km/h (3 Bft) 100,00 %
07.11.2019 20:38 6,4 C 5,6 C 4,4 C 94 % 1002,0 hPa 0,0 l/m 0 min 0 min 0 W/m 12,9 km/h (3 Bft) 100,00 %
07.11.2019 20:40 6,3 C 5,6 C 4,4 C 94 % 1002,0 hPa 0,0 l/m 0 min 0 min 0 W/m 12,9 km/h (3 Bft) 100,00 %
07.11.2019 20:42 6,3 C 5,6 C 4,4 C 94 % 1002,0 hPa 0,0 l/m 0 min 0 min 0 W/m 12,9 km/h (3 Bft) 100,00 %
07.11.2019 20:44 6,3 C 5,6 C 4,4 C 94 % 1002,0 hPa 0,0 l/m 0 min 0 min 0 W/m 16,1 km/h (3 Bft) 100,00 %
07.11.2019 20:46 6,3 C 5,6 C 4,4 C 93 % 1002,0 hPa 0,0 l/m 0 min 0 min 0 W/m 6,4 km/h (2 Bft) 100,00 %
07.11.2019 20:48 6,3 C 5,6 C 4,4 C 93 % 1002,0 hPa 0,0 l/m 0 min 0 min 0 W/m 6,4 km/h (2 Bft) 100,00 %
07.11.2019 20:50 6,3 C 5,6 C 4,4 C 93 % 1002,1 hPa 0,0 l/m 0 min 0 min 0 W/m 6,4 km/h (2 Bft) 97,87 %
07.11.2019 20:52 6,3 C 5,0 C 4,4 C 93 % 1002,1 hPa 0,0 l/m 0 min 0 min 0 W/m 0,0 km/h (0 Bft) 100,00 %
07.11.2019 20:54 6,2 C 5,0 C 4,4 C 93 % 1002,1 hPa 0,0 l/m 0 min 0 min 0 W/m 16,1 km/h (3 Bft) 100,00 %
07.11.2019 20:56 6,2 C 5,0 C 4,4 C 93 % 1002,2 hPa 0,0 l/m 0 min 0 min 0 W/m 16,1 km/h (3 Bft) 100,00 %
07.11.2019 20:58 6,2 C 5,0 C 4,4 C 93 % 1002,2 hPa 0,0 l/m 0 min 0 min 0 W/m 6,4 km/h (2 Bft) 97,83 %
07.11.2019 21:00 6,2 C 5,0 C 4,4 C 93 % 1002,2 hPa 0,0 l/m 0 min 0 min 0 W/m 16,1 km/h (3 Bft) 100,00 %
07.11.2019 21:02 6,2 C 5,0 C 3,9 C 93 % 1002,3 hPa 0,0 l/m 0 min 0 min 0 W/m 6,4 km/h (2 Bft) 100,00 %
07.11.2019 21:04 6,2 C 5,0 C 3,9 C 93 % 1002,3 hPa 0,0 l/m 0 min 0 min 0 W/m 3,2 km/h (1 Bft) 100,00 %
07.11.2019 21:06 6,2 C 5,0 C 3,9 C 93 % 1002,4 hPa 0,0 l/m 0 min 0 min 0 W/m 9,7 km/h (2 Bft) 97,87 %
07.11.2019 21:08 6,1 C 5,0 C 3,9 C 93 % 1002,4 hPa 0,0 l/m 0 min 0 min 0 W/m 6,4 km/h (2 Bft) 97,83 %
07.11.2019 21:10 6,1 C 5,0 C 3,9 C 93 % 1002,4 hPa 0,0 l/m 0 min 0 min 0 W/m 6,4 km/h (2 Bft) 93,62 %
07.11.2019 21:12 6,1 C 5,0 C 3,9 C 93 % 1002,5 hPa 0,0 l/m 0 min 0 min 0 W/m 3,2 km/h (1 Bft) 95,74 %
07.11.2019 21:14 6,1 C 5,0 C 3,9 C 93 % 1002,5 hPa 0,0 l/m 0 min 0 min 0 W/m 16,1 km/h (3 Bft) 95,74 %
07.11.2019 21:16 6,1 C 5,0 C 3,9 C 93 % 1002,6 hPa 0,0 l/m 0 min 0 min 0 W/m 6,4 km/h (2 Bft) 95,74 %
07.11.2019 21:18 6,0 C 5,0 C 3,9 C 93 % 1002,6 hPa 0,0 l/m 0 min 0 min 0 W/m 6,4 km/h (2 Bft) 95,74 %
07.11.2019 21:20 6,0 C 5,0 C 3,9 C 93 % 1002,7 hPa 0,0 l/m 0 min 0 min 0 W/m 16,1 km/h (3 Bft) 91,30 %
07.11.2019 21:22 6,0 C 5,0 C 3,9 C 93 % 1002,8 hPa 0,0 l/m 0 min 0 min 0 W/m 12,9 km/h (3 Bft) 93,62 %
07.11.2019 21:24 6,0 C 5,0 C 4,4 C 93 % 1002,8 hPa 0,0 l/m 0 min 0 min 0 W/m 16,1 km/h (3 Bft) 95,74 %
07.11.2019 21:26 5,9 C 5,0 C 4,4 C 93 % 1002,8 hPa 0,0 l/m 0 min 0 min 0 W/m 16,1 km/h (3 Bft) 95,74 %
07.11.2019 21:28 5,9 C 5,6 C 4,4 C 93 % 1002,8 hPa 0,0 l/m 0 min 0 min 0 W/m 12,9 km/h (3 Bft) 95,74 %
07.11.2019 21:30 5,9 C 5,6 C 4,4 C 93 % 1002,9 hPa 0,0 l/m 0 min 0 min 0 W/m 6,4 km/h (2 Bft) 95,74 %
07.11.2019 21:32 5,9 C 5,6 C 4,4 C 93 % 1002,9 hPa 0,0 l/m 0 min 0 min 0 W/m 16,1 km/h (3 Bft) 95,65 %
07.11.2019 21:34 6,0 C 5,6 C 4,4 C 93 % 1002,9 hPa 0,0 l/m 0 min 0 min 0 W/m 12,9 km/h (3 Bft) 93,62 %
07.11.2019 21:36 5,9 C 5,6 C 4,4 C 93 % 1002,9 hPa 0,0 l/m 0 min 0 min 0 W/m 16,1 km/h (3 Bft) 95,74 %
07.11.2019 21:38 6,0 C 5,6 C 4,4 C 93 % 1002,9 hPa 0,0 l/m 0 min 0 min 0 W/m 16,1 km/h (3 Bft) 89,36 %
07.11.2019 21:40 6,0 C 5,6 C 4,4 C 93 % 1003,0 hPa 0,0 l/m 0 min 0 min 0 W/m 12,9 km/h (3 Bft) 95,74 %
07.11.2019 21:42 6,1 C 5,6 C 4,4 C 93 % 1003,0 hPa 0,0 l/m 0 min 0 min 0 W/m 16,1 km/h (3 Bft) 95,74 %
07.11.2019 21:44 6,1 C 5,6 C 4,4 C 94 % 1003,1 hPa 0,0 l/m 0 min 0 min 0 W/m 16,1 km/h (3 Bft) 95,65 %
07.11.2019 21:46 6,1 C 5,6 C 4,4 C 94 % 1003,1 hPa 0,0 l/m 0 min 0 min 0 W/m 16,1 km/h (3 Bft) 97,87 %
07.11.2019 21:48 6,1 C 5,6 C 4,4 C 94 % 1003,1 hPa 0,0 l/m 0 min 0 min 0 W/m 12,9 km/h (3 Bft) 97,87 %
07.11.2019 21:50 6,1 C 5,6 C 4,4 C 94 % 1003,1 hPa 0,0 l/m 0 min 0 min 0 W/m 19,3 km/h (3 Bft) 97,87 %
07.11.2019 21:52 6,1 C 5,6 C 4,4 C 94 % 1003,0 hPa 0,0 l/m 0 min 0 min 0 W/m 12,9 km/h (3 Bft) 97,87 %
07.11.2019 21:54 6,1 C 5,6 C 4,4 C 94 % 1003,0 hPa 0,0 l/m 0 min 0 min 0 W/m 12,9 km/h (3 Bft) 95,74 %
07.11.2019 21:56 6,1 C 5,6 C 4,4 C 94 % 1003,0 hPa 0,0 l/m 0 min 0 min 0 W/m 6,4 km/h (2 Bft) 100,00 %
07.11.2019 21:58 6,1 C 5,6 C 4,4 C 94 % 1003,0 hPa 0,0 l/m 0 min 0 min 0 W/m 6,4 km/h (2 Bft) 97,87 %
07.11.2019 22:00 6,1 C 5,6 C 4,4 C 94 % 1003,0 hPa 0,0 l/m 0 min 0 min 0 W/m 6,4 km/h (2 Bft) 100,00 %
07.11.2019 22:02 6,1 C 5,6 C 4,4 C 94 % 1003,1 hPa 0,0 l/m 0 min 0 min 0 W/m 12,9 km/h (3 Bft) 100,00 %
07.11.2019 22:04 6,1 C 5,0 C 4,4 C 94 % 1003,1 hPa 0,0 l/m 0 min 0 min 0 W/m 6,4 km/h (2 Bft) 97,87 %
07.11.2019 22:06 6,1 C 5,0 C 4,4 C 94 % 1003,1 hPa 0,0 l/m 0 min 0 min 0 W/m 12,9 km/h (3 Bft) 97,87 %
07.11.2019 22:08 6,1 C 5,0 C 4,4 C 94 % 1003,1 hPa 0,0 l/m 0 min 0 min 0 W/m 6,4 km/h (2 Bft) 95,65 %
07.11.2019 22:10 6,1 C 5,0 C 4,4 C 94 % 1003,1 hPa 0,0 l/m 0 min 0 min 0 W/m 12,9 km/h (3 Bft) 97,87 %
07.11.2019 22:12 6,1 C 5,0 C 3,9 C 94 % 1003,1 hPa 0,0 l/m 0 min 0 min 0 W/m 12,9 km/h (3 Bft) 97,87 %
07.11.2019 22:14 6,1 C 5,0 C 3,9 C 94 % 1003,1 hPa 0,0 l/m 0 min 0 min 0 W/m 12,9 km/h (3 Bft) 97,87 %
07.11.2019 22:16 6,1 C 5,0 C 3,9 C 94 % 1003,1 hPa 0,0 l/m 0 min 0 min 0 W/m 12,9 km/h (3 Bft) 97,87 %
07.11.2019 22:18 6,0 C 5,0 C 3,9 C 94 % 1003,1 hPa 0,0 l/m 0 min 0 min 0 W/m 12,9 km/h (3 Bft) 97,83 %
07.11.2019 22:20 6,0 C 5,0 C 3,9 C 94 % 1003,1 hPa 0,0 l/m 0 min 0 min 0 W/m 12,9 km/h (3 Bft) 93,62 %
07.11.2019 22:22 5,9 C 5,0 C 3,9 C 94 % 1003,2 hPa 0,0 l/m 0 min 0 min 0 W/m 6,4 km/h (2 Bft) 97,87 %
07.11.2019 22:24 5,9 C 5,0 C 3,9 C 94 % 1003,3 hPa 0,0 l/m 0 min 0 min 0 W/m 6,4 km/h (2 Bft) 97,87 %
07.11.2019 22:26 5,9 C 5,0 C 3,9 C 93 % 1003,3 hPa 0,0 l/m 0 min 0 min 0 W/m 12,9 km/h (3 Bft) 95,74 %
07.11.2019 22:28 5,9 C 5,0 C 3,9 C 93 % 1003,3 hPa 0,0 l/m 0 min 0 min 0 W/m 12,9 km/h (3 Bft) 93,62 %
07.11.2019 22:30 5,9 C 5,0 C 3,9 C 93 % 1003,4 hPa 0,0 l/m 0 min 0 min 0 W/m 6,4 km/h (2 Bft) 97,83 %
07.11.2019 22:32 5,9 C 5,0 C 3,9 C 93 % 1003,4 hPa 0,0 l/m 0 min 0 min 0 W/m 12,9 km/h (3 Bft) 97,87 %
07.11.2019 22:34 5,8 C 5,0 C 3,9 C 93 % 1003,4 hPa 0,0 l/m 0 min 0 min 0 W/m 16,1 km/h (3 Bft) 95,74 %
07.11.2019 22:36 5,8 C 5,0 C 3,9 C 93 % 1003,4 hPa 0,0 l/m 0 min 0 min 0 W/m 12,9 km/h (3 Bft) 95,74 %
07.11.2019 22:38 5,8 C 5,0 C 3,9 C 93 % 1003,5 hPa 0,0 l/m 0 min 0 min 0 W/m 12,9 km/h (3 Bft) 97,87 %
07.11.2019 22:40 5,8 C 5,0 C 3,9 C 93 % 1003,4 hPa 0,0 l/m 0 min 0 min 0 W/m 12,9 km/h (3 Bft) 97,87 %
07.11.2019 22:42 5,8 C 5,0 C 3,9 C 93 % 1003,4 hPa 0,0 l/m 0 min 0 min 0 W/m 12,9 km/h (3 Bft) 97,83 %
07.11.2019 22:44 5,8 C 5,0 C 3,9 C 93 % 1003,4 hPa 0,0 l/m 0 min 0 min 0 W/m 6,4 km/h (2 Bft) 95,74 %
07.11.2019 22:46 5,8 C 5,0 C 3,9 C 93 % 1003,5 hPa 0,0 l/m 0 min 0 min 0 W/m 16,1 km/h (3 Bft) 97,87 %
07.11.2019 22:52 5,7 C 5,0 C 3,9 C 93 % 1003,5 hPa 0,0 l/m 0 min 0 min 0 W/m 12,9 km/h (3 Bft) 100,00 %
07.11.2019 22:54 5,7 C 4,4 C 3,9 C 93 % 1003,5 hPa 0,0 l/m 0 min 0 min 0 W/m 6,4 km/h (2 Bft) 97,83 %
07.11.2019 22:56 5,7 C 4,4 C 3,9 C 93 % 1003,5 hPa 0,0 l/m 0 min 0 min 0 W/m 6,4 km/h (2 Bft) 97,87 %
07.11.2019 22:58 5,7 C 4,4 C 3,9 C 93 % 1003,6 hPa 0,0 l/m 0 min 0 min 0 W/m 12,9 km/h (3 Bft) 97,87 %
07.11.2019 23:00 5,7 C 4,4 C 3,9 C 93 % 1003,5 hPa 0,0 l/m 0 min 0 min 0 W/m 12,9 km/h (3 Bft) 97,87 %
07.11.2019 23:02 5,7 C 4,4 C 3,9 C 93 % 1003,6 hPa 0,0 l/m 0 min 0 min 0 W/m 12,9 km/h (3 Bft) 97,87 %
07.11.2019 23:04 5,6 C 4,4 C 3,9 C 93 % 1003,6 hPa 0,0 l/m 0 min 0 min 0 W/m 6,4 km/h (2 Bft) 97,87 %
07.11.2019 23:06 5,6 C 4,4 C 3,9 C 93 % 1003,7 hPa 0,0 l/m 0 min 0 min 0 W/m 12,9 km/h (3 Bft) 97,83 %
07.11.2019 23:08 5,6 C 4,4 C 3,9 C 93 % 1003,7 hPa 0,0 l/m 0 min 0 min 0 W/m 12,9 km/h (3 Bft) 100,00 %
07.11.2019 23:10 5,6 C 4,4 C 3,9 C 93 % 1003,7 hPa 0,0 l/m 0 min 0 min 0 W/m 12,9 km/h (3 Bft) 100,00 %
07.11.2019 23:12 5,6 C 4,4 C 3,3 C 93 % 1003,6 hPa 0,0 l/m 0 min 0 min 0 W/m 6,4 km/h (2 Bft) 100,00 %
07.11.2019 23:14 5,5 C 4,4 C 3,3 C 93 % 1003,6 hPa 0,0 l/m 0 min 0 min 0 W/m 12,9 km/h (3 Bft) 100,00 %
07.11.2019 23:16 5,5 C 4,4 C 3,3 C 93 % 1003,6 hPa 0,0 l/m 0 min 0 min 0 W/m 16,1 km/h (3 Bft) 97,87 %
07.11.2019 23:18 5,5 C 4,4 C 3,3 C 93 % 1003,6 hPa 0,0 l/m 0 min 0 min 0 W/m 6,4 km/h (2 Bft) 97,83 %
07.11.2019 23:20 5,4 C 4,4 C 3,3 C 93 % 1003,6 hPa 0,0 l/m 0 min 0 min 0 W/m 12,9 km/h (3 Bft) 100,00 %
07.11.2019 23:22 5,4 C 4,4 C 3,3 C 93 % 1003,6 hPa 0,0 l/m 0 min 0 min 0 W/m 12,9 km/h (3 Bft) 100,00 %
07.11.2019 23:24 5,4 C 4,4 C 3,3 C 93 % 1003,6 hPa 0,0 l/m 0 min 0 min 0 W/m 12,9 km/h (3 Bft) 97,87 %
07.11.2019 23:26 5,4 C 4,4 C 3,3 C 93 % 1003,6 hPa 0,0 l/m 0 min 0 min 0 W/m 6,4 km/h (2 Bft) 97,87 %
07.11.2019 23:28 5,3 C 4,4 C 3,3 C 93 % 1003,6 hPa 0,0 l/m 0 min 0 min 0 W/m 12,9 km/h (3 Bft) 100,00 %
07.11.2019 23:30 5,3 C 4,4 C 3,3 C 93 % 1003,6 hPa 0,0 l/m 0 min 0 min 0 W/m 6,4 km/h (2 Bft) 95,74 %
07.11.2019 23:32 5,3 C 4,4 C 3,3 C 93 % 1003,6 hPa 0,0 l/m 0 min 0 min 0 W/m 3,2 km/h (1 Bft) 97,87 %
07.11.2019 23:34 5,3 C 4,4 C 3,3 C 93 % 1003,5 hPa 0,0 l/m 0 min 0 min 0 W/m 6,4 km/h (2 Bft) 97,87 %
07.11.2019 23:36 5,3 C 4,4 C 3,3 C 93 % 1003,5 hPa 0,0 l/m 0 min 0 min 0 W/m 3,2 km/h (1 Bft) 95,74 %
07.11.2019 23:38 5,3 C 4,4 C 3,3 C 93 % 1003,5 hPa 0,0 l/m 0 min 0 min 0 W/m 6,4 km/h (2 Bft) 95,74 %
07.11.2019 23:40 5,3 C 4,4 C 3,3 C 93 % 1003,6 hPa 0,0 l/m 0 min 0 min 0 W/m 6,4 km/h (2 Bft) 97,83 %
07.11.2019 23:42 5,2 C 4,4 C 3,3 C 93 % 1003,6 hPa 0,0 l/m 0 min 0 min 0 W/m 12,9 km/h (3 Bft) 95,74 %
07.11.2019 23:44 5,2 C 3,9 C 3,3 C 93 % 1003,6 hPa 0,0 l/m 0 min 0 min 0 W/m 6,4 km/h (2 Bft) 55,56 %
07.11.2019 23:46 5,2 C 4,4 C 3,3 C 93 % 1003,6 hPa 0,0 l/m 0 min 0 min 0 W/m 12,9 km/h (3 Bft) 97,87 %
07.11.2019 23:48 5,2 C 3,9 C 3,3 C 93 % 1003,6 hPa 0,0 l/m 0 min 0 min 0 W/m 3,2 km/h (1 Bft) 95,74 %
07.11.2019 23:50 5,2 C 3,9 C 3,3 C 93 % 1003,6 hPa 0,0 l/m 0 min 0 min 0 W/m 3,2 km/h (1 Bft) 97,87 %
07.11.2019 23:52 5,2 C 3,9 C 3,3 C 94 % 1003,6 hPa 0,0 l/m 0 min 0 min 0 W/m 3,2 km/h (1 Bft) 97,83 %
07.11.2019 23:54 5,2 C 3,9 C 3,3 C 93 % 1003,6 hPa 0,0 l/m 0 min 0 min 0 W/m 3,2 km/h (1 Bft) 97,87 %
07.11.2019 23:56 5,1 C 3,9 C 3,3 C 93 % 1003,6 hPa 0,0 l/m 0 min 0 min 0 W/m 3,2 km/h (1 Bft) 97,87 %
07.11.2019 23:58 5,1 C 3,9 C 3,3 C 93 % 1003,6 hPa 0,0 l/m 0 min 0 min 0 W/m 6,4 km/h (2 Bft) 95,74 %
_ Min-Zeit 23:56 23:44 23:12 15:54 12:56 - - - - 02:16 13:56
Minimum _ 5,1 C 3,9 C 3,3 C 85 % 995,9 hPa - - - - 0,0 km/h (0 Bft) 53,33 %
_ Max-Zeit 10:44 10:04 10:02 00:12 23:06 01:52 09:00 14:53 10:10 11:10 00:12
Maximum _ 10,1 C 10,6 C 9,4 C 99 % 1003,7 hPa 0,2 l/m 2 min 5 min 183 W/m 51,5 km/h
O (7 Bft)
100,00 %
Durchschnitt _ 7,9 C 7,1 C 6,5 C 95 % 999,4 hPa #2,6 l/m #36 min. #3:29 h 61 W/m 17,1 km/h (3 Bft) 97,38 %
© 2019 W. Hausmann